Wetterdaten: aktuell Mittwoch, 17.10.2018 16:44
Datum Zeit Temp. I. Temp. 2m Temp. 5cm Feuchte I. Feuchte 2m Luftdruck Regen Wind Richtung Richtung Taupunkt Windchill Windben
17.10.2018 16:44 24,4 C 17,7 C 16,5 C 49 % 59 % 1017,8 hPa 0,0 l/m 0,0 km/h (0 Bft) W-SW 247 9,6 C 17,7 C 0,0 km/h (0 Bft)
17.10.2018 16:42 24,4 C 17,9 C 16,6 C 49 % 58 % 1017,8 hPa 0,0 l/m 0,0 km/h (0 Bft) W-NW 292 9,5 C 17,9 C 0,0 km/h (0 Bft)
17.10.2018 16:40 24,4 C 18,2 C 16,6 C 49 % 58 % 1017,8 hPa 0,0 l/m 0,0 km/h (0 Bft) W-NW 292 9,8 C 18,2 C 0,0 km/h (0 Bft)
17.10.2018 16:38 24,4 C 18,2 C 16,7 C 49 % 56 % 1017,8 hPa 0,0 l/m 0,0 km/h (0 Bft) N-NO 22 9,3 C 18,2 C 0,0 km/h (0 Bft)
17.10.2018 16:36 24,4 C 18,2 C 16,8 C 49 % 56 % 1017,8 hPa 0,0 l/m 0,2 km/h (0 Bft) N-NO 22 9,3 C 18,2 C 0,0 km/h (0 Bft)
17.10.2018 16:34 24,5 C 18,2 C 16,8 C 49 % 56 % 1017,8 hPa 0,0 l/m 0,2 km/h (0 Bft) N-NO 22 9,3 C 18,2 C 0,0 km/h (0 Bft)
17.10.2018 16:32 24,5 C 18,2 C 17,1 C 49 % 55 % 1017,8 hPa 0,0 l/m 0,2 km/h (0 Bft) N-NO 22 9,0 C 18,2 C 0,0 km/h (0 Bft)
17.10.2018 16:30 24,5 C 18,2 C 17,0 C 49 % 55 % 1017,8 hPa 0,0 l/m 0,2 km/h (0 Bft) N-NO 22 9,0 C 18,2 C 0,0 km/h (0 Bft)
17.10.2018 16:28 24,5 C 18,2 C 17,1 C 49 % 54 % 1017,8 hPa 0,0 l/m 0,5 km/h (0 Bft) NO 45 8,7 C 18,2 C 2,7 km/h (1 Bft)
17.10.2018 16:26 24,5 C 18,2 C 17,3 C 49 % 54 % 1017,5 hPa 0,0 l/m 0,8 km/h (0 Bft) NO 45 8,7 C 18,2 C 2,7 km/h (1 Bft)
17.10.2018 16:24 24,6 C 18,3 C 17,2 C 49 % 55 % 1017,5 hPa 0,0 l/m 1,1 km/h (1 Bft) N-NO 22 9,1 C 18,3 C 0,0 km/h (0 Bft)
17.10.2018 16:22 24,6 C 18,3 C 17,2 C 49 % 55 % 1017,5 hPa 0,0 l/m 1,4 km/h (1 Bft) N-NO 22 9,1 C 18,3 C 0,0 km/h (0 Bft)
17.10.2018 16:20 24,6 C 18,3 C 17,2 C 49 % 55 % 1017,5 hPa 0,0 l/m 1,8 km/h (1 Bft) O-NO 67 9,1 C 18,3 C 2,3 km/h (1 Bft)
17.10.2018 16:18 24,6 C 18,3 C 17,2 C 49 % 56 % 1017,5 hPa 0,0 l/m 1,9 km/h (1 Bft) O-NO 67 9,4 C 18,3 C 3,3 km/h (1 Bft)
17.10.2018 16:16 24,6 C 18,3 C 17,3 C 49 % 55 % 1017,5 hPa 0,0 l/m 1,8 km/h (1 Bft) O-NO 67 9,1 C 18,3 C 3,3 km/h (1 Bft)
17.10.2018 16:14 24,6 C 18,4 C 17,6 C 49 % 56 % 1017,5 hPa 0,0 l/m 1,6 km/h (1 Bft) O-NO 67 9,5 C 18,4 C 3,7 km/h (1 Bft)
17.10.2018 16:12 24,6 C 18,4 C 17,7 C 49 % 57 % 1017,5 hPa 0,0 l/m 1,4 km/h (1 Bft) NO 45 9,7 C 18,4 C 3,7 km/h (1 Bft)
17.10.2018 16:10 24,7 C 18,4 C 17,7 C 49 % 57 % 1017,5 hPa 0,0 l/m 1,3 km/h (1 Bft) NO 45 9,7 C 18,4 C 3,3 km/h (1 Bft)
17.10.2018 16:08 24,7 C 18,5 C 17,8 C 49 % 58 % 1017,5 hPa 0,0 l/m 1,6 km/h (1 Bft) NO 45 10,1 C 18,5 C 3,3 km/h (1 Bft)
17.10.2018 16:06 24,7 C 18,4 C 17,9 C 49 % 58 % 1017,5 hPa 0,0 l/m 1,8 km/h (1 Bft) O-NO 67 10,0 C 18,4 C 2,7 km/h (1 Bft)
17.10.2018 16:04 24,7 C 18,4 C 18,0 C 49 % 58 % 1017,6 hPa 0,0 l/m 3,2 km/h (1 Bft) NO 45 10,0 C 18,4 C 2,7 km/h (1 Bft)
17.10.2018 16:02 24,8 C 18,4 C 18,3 C 49 % 59 % 1017,6 hPa 0,0 l/m 3,2 km/h (1 Bft) O-NO 67 10,2 C 18,4 C 2,5 km/h (1 Bft)
17.10.2018 16:00 24,7 C 18,4 C 18,4 C 49 % 58 % 1017,6 hPa 0,0 l/m 3,2 km/h (1 Bft) N-NO 22 10,0 C 18,4 C 6,4 km/h (2 Bft)
17.10.2018 15:58 24,8 C 18,4 C 18,4 C 49 % 59 % 1017,6 hPa 0,0 l/m 3,4 km/h (1 Bft) N-NO 22 10,2 C 18,4 C 6,4 km/h (2 Bft)
17.10.2018 15:56 24,8 C 18,4 C 18,5 C 49 % 59 % 1017,6 hPa 0,0 l/m 3,5 km/h (1 Bft) O-NO 67 10,2 C 18,4 C 11,8 km/h (2 Bft)
17.10.2018 15:54 24,8 C 18,5 C 18,5 C 49 % 60 % 1017,6 hPa 0,0 l/m 3,7 km/h (1 Bft) N-NO 22 10,6 C 18,5 C 11,8 km/h (2 Bft)
17.10.2018 15:52 24,8 C 18,4 C 18,7 C 49 % 61 % 1017,6 hPa 0,0 l/m 3,7 km/h (1 Bft) NO 45 10,7 C 18,4 C 5,0 km/h (1 Bft)
17.10.2018 15:50 24,8 C 18,4 C 18,8 C 49 % 60 % 1017,6 hPa 0,0 l/m 3,9 km/h (1 Bft) N-NO 22 10,5 C 18,4 C 3,1 km/h (1 Bft)
17.10.2018 15:48 24,8 C 18,4 C 18,9 C 49 % 61 % 1017,6 hPa 0,0 l/m 4,2 km/h (1 Bft) N-NO 22 10,7 C 18,4 C 3,1 km/h (1 Bft)
17.10.2018 15:46 24,9 C 18,3 C 19,0 C 49 % 61 % 1017,8 hPa 0,0 l/m 3,4 km/h (1 Bft) N-NW 337 10,6 C 18,3 C 10,8 km/h (2 Bft)
17.10.2018 15:44 24,9 C 18,4 C 18,9 C 49 % 61 % 1017,8 hPa 0,0 l/m 2,9 km/h (1 Bft) N-NO 22 10,7 C 18,4 C 10,8 km/h (2 Bft)
17.10.2018 15:42 24,9 C 18,5 C 18,8 C 49 % 62 % 1017,8 hPa 0,0 l/m 2,3 km/h (1 Bft) N-NO 22 11,1 C 18,5 C 10,6 km/h (2 Bft)
17.10.2018 15:40 24,9 C 18,5 C 18,8 C 48 % 60 % 1017,8 hPa 0,0 l/m 1,8 km/h (1 Bft) N-NW 337 10,6 C 18,5 C 3,9 km/h (1 Bft)
17.10.2018 15:38 24,9 C 18,6 C 19,0 C 48 % 61 % 1017,8 hPa 0,0 l/m 1,3 km/h (1 Bft) NW 315 10,9 C 18,6 C 3,9 km/h (1 Bft)
17.10.2018 15:36 25,0 C 18,5 C 19,0 C 48 % 60 % 1017,8 hPa 0,0 l/m 1,3 km/h (1 Bft) S-SW 202 10,6 C 18,5 C 0,0 km/h (0 Bft)
17.10.2018 15:34 25,0 C 18,5 C 19,0 C 48 % 60 % 1017,8 hPa 0,0 l/m 1,4 km/h (1 Bft) O-SO 112 10,6 C 18,5 C 3,1 km/h (1 Bft)
17.10.2018 15:32 25,0 C 18,6 C 18,9 C 48 % 60 % 1017,8 hPa 0,0 l/m 2,6 km/h (1 Bft) S 180 10,7 C 18,6 C 3,1 km/h (1 Bft)
17.10.2018 15:30 25,0 C 18,6 C 18,9 C 48 % 60 % 1017,8 hPa 0,0 l/m 2,3 km/h (1 Bft) NO 45 10,7 C 18,6 C 4,2 km/h (1 Bft)
17.10.2018 15:28 25,0 C 18,5 C 19,1 C 48 % 60 % 1017,8 hPa 0,0 l/m 2,4 km/h (1 Bft) SO 135 10,6 C 18,5 C 4,2 km/h (1 Bft)
17.10.2018 15:26 25,0 C 18,4 C 19,2 C 48 % 60 % 1017,9 hPa 0,0 l/m 2,7 km/h (1 Bft) SW 225 10,5 C 18,4 C 3,5 km/h (1 Bft)
17.10.2018 15:24 25,0 C 18,5 C 19,5 C 48 % 60 % 1017,9 hPa 0,0 l/m 3,9 km/h (1 Bft) S 180 10,6 C 18,5 C 8,1 km/h (2 Bft)
17.10.2018 15:22 25,1 C 18,6 C 19,5 C 48 % 61 % 1017,9 hPa 0,0 l/m 3,9 km/h (1 Bft) W-SW 247 10,9 C 18,6 C 8,1 km/h (2 Bft)
17.10.2018 15:20 25,1 C 18,5 C 19,7 C 48 % 60 % 1017,9 hPa 0,0 l/m 3,9 km/h (1 Bft) S 180 10,6 C 18,5 C 9,5 km/h (2 Bft)
17.10.2018 15:18 25,1 C 18,5 C 20,0 C 48 % 61 % 1017,9 hPa 0,0 l/m 4,8 km/h (1 Bft) S 180 10,8 C 18,5 C 9,5 km/h (2 Bft)
17.10.2018 15:16 25,1 C 18,5 C 20,0 C 48 % 61 % 1017,9 hPa 0,0 l/m 5,0 km/h (1 Bft) S 180 10,8 C 18,5 C 13,1 km/h (3 Bft)
17.10.2018 15:14 25,1 C 18,4 C 20,0 C 48 % 61 % 1017,9 hPa 0,0 l/m 4,3 km/h (1 Bft) S-SW 202 10,7 C 18,4 C 13,1 km/h (3 Bft)
17.10.2018 15:12 25,2 C 18,4 C 20,1 C 48 % 61 % 1017,9 hPa 0,0 l/m 4,0 km/h (1 Bft) O-SO 112 10,7 C 18,4 C 5,6 km/h (1 Bft)
17.10.2018 15:10 25,1 C 18,6 C 20,2 C 48 % 61 % 1017,9 hPa 0,0 l/m 4,2 km/h (1 Bft) SW 225 10,9 C 18,6 C 5,6 km/h (1 Bft)
17.10.2018 15:08 25,2 C 18,6 C 20,4 C 48 % 61 % 1017,9 hPa 0,0 l/m 3,4 km/h (1 Bft) S 180 10,9 C 18,6 C 8,5 km/h (2 Bft)
17.10.2018 15:06 25,2 C 18,6 C 20,3 C 48 % 62 % 1018,3 hPa 0,0 l/m 3,4 km/h (1 Bft) SW 225 11,2 C 18,6 C 8,5 km/h (2 Bft)
17.10.2018 15:04 25,2 C 18,4 C 20,3 C 48 % 61 % 1018,3 hPa 0,0 l/m 4,0 km/h (1 Bft) W-SW 247 10,7 C 18,4 C 10,6 km/h (2 Bft)
17.10.2018 15:02 25,2 C 18,5 C 20,4 C 48 % 62 % 1018,3 hPa 0,0 l/m 4,5 km/h (1 Bft) SW 225 11,1 C 18,5 C 10,6 km/h (2 Bft)
17.10.2018 15:00 25,3 C 18,3 C 20,4 C 48 % 61 % 1018,3 hPa 0,0 l/m 4,7 km/h (1 Bft) S-SO 157 10,6 C 18,3 C 7,7 km/h (2 Bft)
17.10.2018 14:58 25,2 C 18,3 C 20,5 C 48 % 60 % 1018,3 hPa 0,0 l/m 5,3 km/h (1 Bft) S 180 10,4 C 18,3 C 6,8 km/h (2 Bft)
17.10.2018 14:56 25,2 C 18,2 C 20,5 C 48 % 60 % 1018,3 hPa 0,0 l/m 4,7 km/h (1 Bft) W-NW 292 10,3 C 18,2 C 10,4 km/h (2 Bft)
17.10.2018 14:54 25,2 C 18,2 C 20,6 C 48 % 60 % 1018,3 hPa 0,0 l/m 3,9 km/h (1 Bft) SW 225 10,3 C 18,2 C 10,4 km/h (2 Bft)
17.10.2018 14:52 25,2 C 18,4 C 20,5 C 48 % 60 % 1018,3 hPa 0,0 l/m 2,9 km/h (1 Bft) SW 225 10,5 C 18,4 C 9,1 km/h (2 Bft)
17.10.2018 14:50 25,4 C 18,4 C 20,5 C 48 % 62 % 1018,3 hPa 0,0 l/m 2,1 km/h (1 Bft) S 180 11,0 C 18,4 C 9,1 km/h (2 Bft)
17.10.2018 14:48 25,4 C 18,2 C 20,3 C 48 % 62 % 1018,3 hPa 0,0 l/m 1,8 km/h (1 Bft) S 180 10,8 C 18,2 C 6,4 km/h (2 Bft)
17.10.2018 14:46 25,2 C 18,1 C 20,4 C 48 % 62 % 1018,4 hPa 0,0 l/m 1,9 km/h (1 Bft) N-NW 337 10,7 C 18,1 C 3,3 km/h (1 Bft)
17.10.2018 14:44 25,4 C 17,9 C 20,8 C 48 % 61 % 1018,4 hPa 0,0 l/m 3,1 km/h (1 Bft) NO 45 10,3 C 17,9 C 2,3 km/h (1 Bft)
17.10.2018 14:42 25,4 C 17,9 C 21,0 C 48 % 61 % 1018,4 hPa 0,0 l/m 3,5 km/h (1 Bft) S 180 10,3 C 17,9 C 5,4 km/h (1 Bft)
17.10.2018 14:40 25,4 C 18,0 C 21,1 C 48 % 61 % 1018,4 hPa 0,0 l/m 4,0 km/h (1 Bft) S 180 10,4 C 18,0 C 5,4 km/h (1 Bft)
17.10.2018 14:38 25,4 C 17,9 C 21,1 C 48 % 62 % 1018,4 hPa 0,0 l/m 4,3 km/h (1 Bft) S 180 10,5 C 17,9 C 5,8 km/h (2 Bft)
17.10.2018 14:36 25,5 C 17,9 C 21,1 C 48 % 62 % 1018,4 hPa 0,0 l/m 4,7 km/h (1 Bft) S 180 10,5 C 17,9 C 10,0 km/h (2 Bft)
17.10.2018 14:34 25,4 C 17,8 C 20,7 C 47 % 63 % 1018,4 hPa 0,0 l/m 3,9 km/h (1 Bft) S 180 10,7 C 17,8 C 10,0 km/h (2 Bft)
17.10.2018 14:32 25,5 C 17,9 C 21,1 C 47 % 62 % 1018,4 hPa 0,0 l/m 3,7 km/h (1 Bft) W-SW 247 10,5 C 17,9 C 7,3 km/h (2 Bft)
17.10.2018 14:30 25,5 C 17,9 C 21,2 C 47 % 63 % 1018,4 hPa 0,0 l/m 3,2 km/h (1 Bft) S-SO 157 10,8 C 17,9 C 4,6 km/h (1 Bft)
17.10.2018 14:28 25,5 C 17,9 C 21,3 C 47 % 63 % 1018,4 hPa 0,0 l/m 3,1 km/h (1 Bft) S 180 10,8 C 17,9 C 10,0 km/h (2 Bft)
17.10.2018 14:26 25,5 C 17,8 C 21,0 C 47 % 63 % 1018,5 hPa 0,0 l/m 3,1 km/h (1 Bft) S-SW 202 10,7 C 17,8 C 10,0 km/h (2 Bft)
17.10.2018 14:24 25,5 C 17,6 C 20,8 C 47 % 64 % 1018,5 hPa 0,0 l/m 2,4 km/h (1 Bft) W-SW 247 10,7 C 17,6 C 4,4 km/h (1 Bft)
17.10.2018 14:22 25,5 C 17,4 C 20,8 C 47 % 63 % 1018,5 hPa 0,0 l/m 3,1 km/h (1 Bft) W 270 10,3 C 17,4 C 4,6 km/h (1 Bft)
17.10.2018 14:20 25,5 C 17,3 C 20,9 C 47 % 63 % 1018,5 hPa 0,0 l/m 3,5 km/h (1 Bft) W 270 10,2 C 17,3 C 4,6 km/h (1 Bft)
17.10.2018 14:18 25,5 C 17,3 C 21,0 C 47 % 63 % 1018,5 hPa 0,0 l/m 3,7 km/h (1 Bft) S 180 10,2 C 17,3 C 4,4 km/h (1 Bft)
17.10.2018 14:16 25,6 C 17,1 C 21,0 C 47 % 64 % 1018,5 hPa 0,0 l/m 3,5 km/h (1 Bft) S-SO 157 10,2 C 17,1 C 4,6 km/h (1 Bft)
17.10.2018 14:14 25,5 C 17,0 C 20,9 C 47 % 64 % 1018,5 hPa 0,0 l/m 3,1 km/h (1 Bft) S-SO 157 10,1 C 17,0 C 10,4 km/h (2 Bft)
17.10.2018 14:12 25,6 C 17,0 C 20,0 C 47 % 64 % 1018,5 hPa 0,0 l/m 2,6 km/h (1 Bft) S-SO 157 10,1 C 17,0 C 10,4 km/h (2 Bft)
17.10.2018 14:10 25,6 C 16,9 C 19,8 C 47 % 65 % 1018,5 hPa 0,0 l/m 1,8 km/h (1 Bft) SO 135 10,3 C 16,9 C 8,7 km/h (2 Bft)
17.10.2018 14:08 25,6 C 16,8 C 19,6 C 47 % 65 % 1018,5 hPa 0,0 l/m 1,3 km/h (1 Bft) SO 135 10,2 C 16,8 C 3,9 km/h (1 Bft)
17.10.2018 14:06 25,6 C 16,8 C 20,1 C 47 % 64 % 1019,8 hPa 0,0 l/m 1,3 km/h (1 Bft) S-SW 202 10,0 C 16,8 C 2,9 km/h (1 Bft)
17.10.2018 14:04 25,6 C 17,0 C 20,3 C 47 % 64 % 1019,8 hPa 0,0 l/m 1,8 km/h (1 Bft) S 180 10,1 C 17,0 C 2,9 km/h (1 Bft)
17.10.2018 14:02 25,7 C 17,0 C 20,4 C 47 % 65 % 1019,8 hPa 0,0 l/m 2,1 km/h (1 Bft) S 180 10,4 C 17,0 C 2,9 km/h (1 Bft)
17.10.2018 14:00 25,7 C 16,8 C 20,3 C 47 % 65 % 1019,8 hPa 0,0 l/m 2,7 km/h (1 Bft) SW 225 10,2 C 16,8 C 3,1 km/h (1 Bft)
17.10.2018 13:58 25,7 C 16,8 C 20,6 C 47 % 65 % 1019,8 hPa 0,0 l/m 3,2 km/h (1 Bft) SO 135 10,2 C 16,8 C 3,5 km/h (1 Bft)
17.10.2018 13:56 25,8 C 16,8 C 21,0 C 47 % 65 % 1019,8 hPa 0,0 l/m 3,4 km/h (1 Bft) S-SW 202 10,2 C 16,8 C 5,2 km/h (1 Bft)
17.10.2018 13:54 25,8 C 16,8 C 21,2 C 47 % 65 % 1019,8 hPa 0,0 l/m 4,0 km/h (1 Bft) S 180 10,2 C 16,8 C 5,2 km/h (1 Bft)
17.10.2018 13:52 25,8 C 16,8 C 21,3 C 47 % 65 % 1019,8 hPa 0,0 l/m 4,7 km/h (1 Bft) S 180 10,2 C 16,8 C 9,5 km/h (2 Bft)
17.10.2018 13:50 25,9 C 16,8 C 21,1 C 47 % 66 % 1019,8 hPa 0,0 l/m 5,0 km/h (1 Bft) W-SW 247 10,4 C 16,8 C 9,5 km/h (2 Bft)
17.10.2018 13:48 25,9 C 16,6 C 21,1 C 47 % 64 % 1019,8 hPa 0,0 l/m 5,0 km/h (1 Bft) SW 225 9,8 C 16,6 C 4,1 km/h (1 Bft)
17.10.2018 13:46 25,8 C 16,6 C 21,3 C 47 % 64 % 1019,3 hPa 0,0 l/m 5,1 km/h (1 Bft) W-SW 247 9,8 C 16,6 C 7,0 km/h (2 Bft)
17.10.2018 13:44 25,9 C 16,7 C 21,3 C 47 % 65 % 1019,3 hPa 0,0 l/m 5,1 km/h (1 Bft) S 180 10,1 C 16,7 C 13,9 km/h (3 Bft)
17.10.2018 13:42 25,9 C 16,7 C 20,8 C 47 % 65 % 1019,3 hPa 0,0 l/m 4,5 km/h (1 Bft) S 180 10,1 C 16,7 C 13,9 km/h (3 Bft)
17.10.2018 13:40 26,0 C 16,5 C 20,6 C 47 % 66 % 1019,3 hPa 0,0 l/m 3,9 km/h (1 Bft) SW 225 10,1 C 16,5 C 8,1 km/h (2 Bft)
17.10.2018 13:38 25,9 C 16,3 C 20,0 C 47 % 64 % 1019,3 hPa 0,0 l/m 4,0 km/h (1 Bft) S 180 9,5 C 16,3 C 7,9 km/h (2 Bft)
17.10.2018 13:36 26,0 C 16,4 C 19,9 C 47 % 64 % 1019,3 hPa 0,0 l/m 4,3 km/h (1 Bft) S-SO 157 9,6 C 16,4 C 6,6 km/h (2 Bft)
17.10.2018 13:34 26,0 C 16,5 C 20,0 C 47 % 64 % 1019,3 hPa 0,0 l/m 4,5 km/h (1 Bft) SO 135 9,7 C 16,5 C 6,6 km/h (2 Bft)
17.10.2018 13:32 26,1 C 16,4 C 20,3 C 47 % 64 % 1019,3 hPa 0,0 l/m 4,7 km/h (1 Bft) SO 135 9,6 C 16,4 C 7,0 km/h (2 Bft)
17.10.2018 13:30 26,1 C 16,6 C 20,6 C 46 % 64 % 1019,3 hPa 0,0 l/m 5,0 km/h (1 Bft) S-SO 157 9,8 C 16,6 C 7,3 km/h (2 Bft)
17.10.2018 13:28 26,2 C 16,9 C 20,9 C 46 % 63 % 1019,3 hPa 0,0 l/m 5,5 km/h (1 Bft) S 180 9,8 C 16,9 C 8,7 km/h (2 Bft)
17.10.2018 13:26 26,2 C 17,2 C 21,6 C 46 % 63 % 1019,3 hPa 0,0 l/m 6,1 km/h (2 Bft) S 180 10,1 C 17,2 C 9,7 km/h (2 Bft)
17.10.2018 13:24 26,2 C 17,3 C 22,0 C 47 % 63 % 1019,4 hPa 0,0 l/m 7,2 km/h (2 Bft) S 180 10,2 C 17,3 C 11,2 km/h (2 Bft)
17.10.2018 13:22 26,2 C 17,2 C 22,0 C 47 % 63 % 1019,4 hPa 0,0 l/m 7,6 km/h (2 Bft) SO 135 10,1 C 17,2 C 12,2 km/h (2 Bft)
17.10.2018 13:20 26,2 C 17,1 C 22,0 C 47 % 64 % 1019,4 hPa 0,0 l/m 8,7 km/h (2 Bft) S-SO 157 10,2 C 17,1 C 13,1 km/h (3 Bft)
17.10.2018 13:18 26,3 C 17,1 C 22,1 C 47 % 64 % 1019,4 hPa 0,0 l/m 9,0 km/h (2 Bft) SO 135 10,2 C 17,1 C 14,5 km/h (3 Bft)
17.10.2018 13:16 26,3 C 17,0 C 21,9 C 47 % 64 % 1019,4 hPa 0,0 l/m 9,0 km/h (2 Bft) SO 135 10,1 C 17,0 C 14,5 km/h (3 Bft)
17.10.2018 13:14 26,3 C 16,9 C 21,8 C 47 % 64 % 1019,4 hPa 0,0 l/m 7,6 km/h (2 Bft) S 180 10,0 C 16,9 C 12,7 km/h (3 Bft)
17.10.2018 13:12 26,4 C 17,0 C 21,6 C 47 % 63 % 1019,4 hPa 0,0 l/m 6,9 km/h (2 Bft) S-SO 157 9,9 C 17,0 C 13,9 km/h (3 Bft)
17.10.2018 13:10 26,2 C 17,1 C 21,5 C 47 % 64 % 1019,4 hPa 0,0 l/m 6,0 km/h (2 Bft) S 180 10,2 C 17,1 C 13,9 km/h (3 Bft)
17.10.2018 13:08 26,3 C 17,2 C 21,3 C 47 % 63 % 1019,4 hPa 0,0 l/m 5,1 km/h (1 Bft) S-SO 157 10,1 C 17,2 C 15,1 km/h (3 Bft)
17.10.2018 13:06 26,3 C 17,1 C 21,2 C 47 % 63 % 1019,6 hPa 0,0 l/m 4,2 km/h (1 Bft) S-SO 157 10,0 C 17,1 C 15,1 km/h (3 Bft)
17.10.2018 13:04 26,3 C 17,0 C 21,2 C 47 % 63 % 1019,6 hPa 0,0 l/m 3,7 km/h (1 Bft) S-SO 157 9,9 C 17,0 C 9,1 km/h (2 Bft)
17.10.2018 13:02 26,4 C 16,9 C 20,8 C 47 % 63 % 1019,6 hPa 0,0 l/m 3,2 km/h (1 Bft) S 180 9,8 C 16,9 C 9,1 km/h (2 Bft)
17.10.2018 13:00 26,2 C 16,9 C 20,8 C 47 % 62 % 1019,6 hPa 0,0 l/m 2,4 km/h (1 Bft) W-SW 247 9,6 C 16,9 C 7,5 km/h (2 Bft)
17.10.2018 12:58 26,3 C 17,0 C 20,8 C 47 % 63 % 1019,6 hPa 0,0 l/m 1,9 km/h (1 Bft) NO 45 9,9 C 17,0 C 6,2 km/h (2 Bft)
17.10.2018 12:56 26,3 C 17,0 C 20,9 C 47 % 63 % 1019,6 hPa 0,0 l/m 1,4 km/h (1 Bft) SW 225 9,9 C 17,0 C 7,3 km/h (2 Bft)
17.10.2018 12:54 26,3 C 16,9 C 20,8 C 47 % 63 % 1019,6 hPa 0,0 l/m 1,8 km/h (1 Bft) W 270 9,8 C 16,9 C 7,3 km/h (2 Bft)
17.10.2018 12:52 26,2 C 16,9 C 20,8 C 47 % 63 % 1019,6 hPa 0,0 l/m 2,3 km/h (1 Bft) S-SO 157 9,8 C 16,9 C 0,0 km/h (0 Bft)
17.10.2018 12:50 26,3 C 16,9 C 20,5 C 47 % 64 % 1019,6 hPa 0,0 l/m 2,9 km/h (1 Bft) SW 225 10,0 C 16,9 C 5,8 km/h (2 Bft)
17.10.2018 12:48 26,2 C 16,8 C 20,6 C 47 % 65 % 1019,6 hPa 0,0 l/m 3,2 km/h (1 Bft) SO 135 10,2 C 16,8 C 5,8 km/h (2 Bft)
17.10.2018 12:46 26,3 C 16,6 C 20,5 C 47 % 65 % 1019,7 hPa 0,0 l/m 2,7 km/h (1 Bft) O-NO 67 10,0 C 16,6 C 9,3 km/h (2 Bft)
17.10.2018 12:44 26,3 C 16,6 C 20,5 C 47 % 65 % 1019,7 hPa 0,0 l/m 3,1 km/h (1 Bft) N-NO 22 10,0 C 16,6 C 9,3 km/h (2 Bft)
17.10.2018 12:42 26,3 C 16,7 C 20,3 C 47 % 66 % 1019,7 hPa 0,0 l/m 2,9 km/h (1 Bft) N-NO 22 10,3 C 16,7 C 7,7 km/h (2 Bft)
17.10.2018 12:40 26,2 C 16,5 C 20,1 C 47 % 66 % 1019,7 hPa 0,0 l/m 3,1 km/h (1 Bft) N-NO 22 10,1 C 16,5 C 7,7 km/h (2 Bft)
17.10.2018 12:38 26,3 C 16,5 C 20,0 C 47 % 65 % 1019,7 hPa 0,0 l/m 2,6 km/h (1 Bft) W-SW 247 9,9 C 16,5 C 0,0 km/h (0 Bft)
17.10.2018 12:36 26,3 C 16,5 C 20,1 C 47 % 65 % 1019,7 hPa 0,0 l/m 3,7 km/h (1 Bft) O-SO 112 9,9 C 16,5 C 7,3 km/h (2 Bft)
17.10.2018 12:34 26,3 C 16,6 C 20,1 C 47 % 66 % 1019,7 hPa 0,0 l/m 5,1 km/h (1 Bft) O-NO 67 10,2 C 16,6 C 8,3 km/h (2 Bft)
17.10.2018 12:32 26,3 C 16,6 C 20,2 C 47 % 67 % 1019,7 hPa 0,0 l/m 5,6 km/h (1 Bft) O-SO 112 10,4 C 16,6 C 8,3 km/h (2 Bft)
17.10.2018 12:30 26,2 C 16,5 C 20,3 C 47 % 68 % 1019,7 hPa 0,0 l/m 6,8 km/h (2 Bft) N-NO 22 10,6 C 16,5 C 6,8 km/h (2 Bft)
17.10.2018 12:28 26,3 C 16,1 C 20,2 C 47 % 69 % 1019,7 hPa 0,0 l/m 7,7 km/h (2 Bft) SO 135 10,4 C 16,1 C 9,3 km/h (2 Bft)
17.10.2018 12:26 26,2 C 16,1 C 20,2 C 47 % 69 % 1020,1 hPa 0,0 l/m 8,4 km/h (2 Bft) O-SO 112 10,4 C 16,1 C 12,9 km/h (3 Bft)
17.10.2018 12:24 26,3 C 16,1 C 20,1 C 47 % 68 % 1020,1 hPa 0,0 l/m 8,9 km/h (2 Bft) N-NO 22 10,2 C 16,1 C 12,9 km/h (3 Bft)
17.10.2018 12:22 26,3 C 16,1 C 20,0 C 47 % 68 % 1020,1 hPa 0,0 l/m 8,9 km/h (2 Bft) N-NO 22 10,2 C 16,1 C 11,6 km/h (2 Bft)
17.10.2018 12:20 26,2 C 16,1 C 19,9 C 47 % 69 % 1020,1 hPa 0,0 l/m 8,5 km/h (2 Bft) NO 45 10,4 C 16,1 C 12,4 km/h (3 Bft)
17.10.2018 12:18 26,3 C 16,0 C 19,8 C 47 % 67 % 1020,1 hPa 0,0 l/m 8,5 km/h (2 Bft) O-NO 67 9,9 C 16,0 C 12,4 km/h (3 Bft)
17.10.2018 12:16 26,2 C 16,0 C 19,8 C 47 % 68 % 1020,1 hPa 0,0 l/m 8,7 km/h (2 Bft) O-NO 67 10,1 C 16,0 C 13,3 km/h (3 Bft)
17.10.2018 12:14 26,2 C 16,0 C 19,8 C 47 % 69 % 1020,1 hPa 0,0 l/m 9,3 km/h (2 Bft) NO 45 10,3 C 16,0 C 21,2 km/h (4 Bft)
17.10.2018 12:12 26,2 C 15,4 C 19,5 C 47 % 71 % 1020,1 hPa 0,0 l/m 8,4 km/h (2 Bft) NO 45 10,2 C 15,4 C 21,2 km/h (4 Bft)
17.10.2018 12:10 26,2 C 15,4 C 19,5 C 47 % 71 % 1020,1 hPa 0,0 l/m 8,4 km/h (2 Bft) NO 45 10,2 C 15,4 C 21,2 km/h (4 Bft)
17.10.2018 12:08 26,2 C 15,4 C 19,5 C 47 % 71 % 1020,1 hPa 0,0 l/m 8,4 km/h (2 Bft) NO 45 10,2 C 15,4 C 21,2 km/h (4 Bft)
17.10.2018 12:06 26,2 C 15,4 C 19,5 C 47 % 71 % 1020,1 hPa 0,0 l/m 8,4 km/h (2 Bft) NO 45 10,2 C 15,4 C 21,2 km/h (4 Bft)
17.10.2018 12:04 26,2 C 15,4 C 19,5 C 47 % 71 % 1020,1 hPa 0,0 l/m 8,4 km/h (2 Bft) NO 45 10,2 C 15,4 C 21,2 km/h (4 Bft)
17.10.2018 12:02 26,2 C 15,4 C 19,5 C 47 % 71 % 1020,1 hPa 0,0 l/m 8,4 km/h (2 Bft) NO 45 10,2 C 15,4 C 21,2 km/h (4 Bft)
17.10.2018 12:00 26,2 C 15,5 C 19,3 C 47 % 71 % 1020,1 hPa 0,0 l/m 7,4 km/h (2 Bft) N-NO 22 10,3 C 15,5 C 15,4 km/h (3 Bft)
17.10.2018 11:58 26,2 C 15,5 C 19,2 C 47 % 71 % 1020,1 hPa 0,0 l/m 6,1 km/h (2 Bft) N-NO 22 10,3 C 15,5 C 10,6 km/h (2 Bft)
17.10.2018 11:56 26,2 C 15,4 C 19,0 C 47 % 71 % 1020,1 hPa 0,0 l/m 5,0 km/h (1 Bft) O-NO 67 10,2 C 15,4 C 12,0 km/h (2 Bft)
17.10.2018 11:54 26,1 C 15,3 C 18,9 C 47 % 71 % 1020,1 hPa 0,0 l/m 5,0 km/h (1 Bft) O 90 10,1 C 15,3 C 12,0 km/h (2 Bft)
17.10.2018 11:52 26,2 C 15,2 C 18,8 C 47 % 71 % 1020,1 hPa 0,0 l/m 4,5 km/h (1 Bft) NO 45 10,0 C 15,2 C 9,7 km/h (2 Bft)
17.10.2018 11:50 26,2 C 15,2 C 18,8 C 47 % 71 % 1020,1 hPa 0,0 l/m 5,8 km/h (2 Bft) NO 45 10,0 C 15,2 C 10,6 km/h (2 Bft)
17.10.2018 11:48 26,1 C 15,3 C 18,6 C 47 % 71 % 1020,1 hPa 0,0 l/m 5,6 km/h (1 Bft) N-NO 22 10,1 C 15,3 C 10,6 km/h (2 Bft)
17.10.2018 11:46 26,1 C 15,2 C 18,6 C 47 % 72 % 1020,1 hPa 0,0 l/m 6,0 km/h (2 Bft) O-NO 67 10,2 C 15,2 C 17,0 km/h (3 Bft)
17.10.2018 11:44 26,2 C 14,9 C 18,6 C 47 % 72 % 1020,1 hPa 0,0 l/m 7,2 km/h (2 Bft) O-NO 67 9,9 C 14,9 C 10,8 km/h (2 Bft)
17.10.2018 11:42 26,1 C 15,0 C 18,5 C 47 % 71 % 1020,1 hPa 0,0 l/m 7,6 km/h (2 Bft) NO 45 9,8 C 15,0 C 12,6 km/h (3 Bft)
17.10.2018 11:40 26,1 C 15,0 C 18,5 C 47 % 71 % 1020,1 hPa 0,0 l/m 7,1 km/h (2 Bft) N-NO 22 9,8 C 15,0 C 12,6 km/h (3 Bft)
17.10.2018 11:38 26,1 C 15,0 C 18,2 C 47 % 72 % 1020,1 hPa 0,0 l/m 6,1 km/h (2 Bft) O-NO 67 10,0 C 15,0 C 11,6 km/h (2 Bft)
17.10.2018 11:36 26,1 C 14,9 C 18,2 C 47 % 72 % 1020,1 hPa 0,0 l/m 5,8 km/h (2 Bft) N-NO 22 9,9 C 14,9 C 14,7 km/h (3 Bft)
17.10.2018 11:34 26,1 C 14,9 C 18,2 C 47 % 72 % 1020,1 hPa 0,0 l/m 4,5 km/h (1 Bft) N-NO 22 9,9 C 14,9 C 14,7 km/h (3 Bft)
17.10.2018 11:32 26,1 C 14,8 C 18,0 C 47 % 71 % 1020,1 hPa 0,0 l/m 3,7 km/h (1 Bft) N-NO 22 9,6 C 14,8 C 14,3 km/h (3 Bft)
17.10.2018 11:30 26,1 C 14,9 C 18,1 C 47 % 72 % 1020,1 hPa 0,0 l/m 3,5 km/h (1 Bft) NO 45 9,9 C 14,9 C 14,3 km/h (3 Bft)
17.10.2018 11:28 26,1 C 14,9 C 18,1 C 47 % 72 % 1020,1 hPa 0,0 l/m 2,9 km/h (1 Bft) NO 45 9,9 C 14,9 C 2,5 km/h (1 Bft)
17.10.2018 11:26 26,0 C 14,9 C 18,0 C 47 % 72 % 1019,6 hPa 0,0 l/m 2,7 km/h (1 Bft) NO 45 9,9 C 14,9 C 3,9 km/h (1 Bft)
17.10.2018 11:24 26,0 C 14,9 C 17,8 C 47 % 72 % 1019,6 hPa 0,0 l/m 2,4 km/h (1 Bft) O-NO 67 9,9 C 14,9 C 4,1 km/h (1 Bft)
17.10.2018 11:22 26,0 C 14,8 C 17,6 C 47 % 72 % 1019,6 hPa 0,0 l/m 1,6 km/h (1 Bft) O-NO 67 9,8 C 14,8 C 7,3 km/h (2 Bft)
17.10.2018 11:20 26,0 C 14,7 C 17,6 C 47 % 72 % 1019,6 hPa 0,0 l/m 1,4 km/h (1 Bft) NO 45 9,7 C 14,7 C 7,3 km/h (2 Bft)
17.10.2018 11:18 26,0 C 14,8 C 17,3 C 47 % 70 % 1019,6 hPa 0,0 l/m 0,8 km/h (0 Bft) N-NO 22 9,4 C 14,8 C 4,6 km/h (1 Bft)
17.10.2018 11:16 26,0 C 14,9 C 17,4 C 47 % 71 % 1019,6 hPa 0,0 l/m 1,0 km/h (0 Bft) O-NO 67 9,7 C 14,9 C 0,0 km/h (0 Bft)
17.10.2018 11:14 26,0 C 14,9 C 17,3 C 47 % 71 % 1019,6 hPa 0,0 l/m 1,3 km/h (1 Bft) O-SO 112 9,7 C 14,9 C 0,0 km/h (0 Bft)
17.10.2018 11:12 26,0 C 14,8 C 17,3 C 47 % 73 % 1019,6 hPa 0,0 l/m 1,3 km/h (1 Bft) O-NO 67 10,0 C 14,8 C 3,7 km/h (1 Bft)
17.10.2018 11:10 26,0 C 14,6 C 17,0 C 47 % 72 % 1019,6 hPa 0,0 l/m 1,3 km/h (1 Bft) S 180 9,6 C 14,6 C 3,7 km/h (1 Bft)
17.10.2018 11:08 26,0 C 14,4 C 16,8 C 47 % 71 % 1019,6 hPa 0,0 l/m 1,3 km/h (1 Bft) S 180 9,2 C 14,4 C 3,3 km/h (1 Bft)
17.10.2018 11:06 25,9 C 14,4 C 16,9 C 48 % 72 % 1019,9 hPa 0,0 l/m 1,1 km/h (1 Bft) S 180 9,4 C 14,4 C 3,3 km/h (1 Bft)
17.10.2018 11:04 25,9 C 14,3 C 16,5 C 47 % 72 % 1019,9 hPa 0,0 l/m 1,1 km/h (1 Bft) S-SO 157 9,3 C 14,3 C 2,9 km/h (1 Bft)
17.10.2018 11:02 25,9 C 14,2 C 16,4 C 48 % 72 % 1019,9 hPa 0,0 l/m 1,1 km/h (1 Bft) W 270 9,2 C 14,2 C 0,0 km/h (0 Bft)
17.10.2018 11:00 25,9 C 14,2 C 16,7 C 48 % 72 % 1019,9 hPa 0,0 l/m 1,1 km/h (1 Bft) SW 225 9,2 C 14,2 C 3,3 km/h (1 Bft)
17.10.2018 10:58 25,9 C 14,1 C 16,7 C 48 % 73 % 1019,9 hPa 0,0 l/m 1,3 km/h (1 Bft) SO 135 9,3 C 14,1 C 3,3 km/h (1 Bft)
17.10.2018 10:56 25,8 C 14,0 C 16,4 C 48 % 73 % 1019,9 hPa 0,0 l/m 1,4 km/h (1 Bft) S-SO 157 9,2 C 14,0 C 4,1 km/h (1 Bft)
17.10.2018 10:54 25,8 C 14,0 C 16,5 C 48 % 74 % 1019,9 hPa 0,0 l/m 1,9 km/h (1 Bft) S 180 9,4 C 14,0 C 4,2 km/h (1 Bft)
17.10.2018 10:52 25,8 C 14,0 C 16,4 C 48 % 76 % 1019,9 hPa 0,0 l/m 2,3 km/h (1 Bft) W-SW 247 9,8 C 14,0 C 4,2 km/h (1 Bft)
17.10.2018 10:50 25,8 C 13,7 C 16,3 C 48 % 75 % 1019,9 hPa 0,0 l/m 2,4 km/h (1 Bft) W-SW 247 9,3 C 13,7 C 3,1 km/h (1 Bft)
17.10.2018 10:48 25,8 C 13,6 C 16,2 C 48 % 75 % 1019,9 hPa 0,0 l/m 2,9 km/h (1 Bft) SW 225 9,3 C 13,6 C 4,2 km/h (1 Bft)
17.10.2018 10:46 25,8 C 13,7 C 16,2 C 48 % 75 % 1019,7 hPa 0,0 l/m 3,1 km/h (1 Bft) SW 225 9,3 C 13,7 C 4,4 km/h (1 Bft)
17.10.2018 10:44 25,8 C 13,7 C 16,3 C 48 % 76 % 1019,7 hPa 0,0 l/m 2,9 km/h (1 Bft) SW 225 9,5 C 13,7 C 4,4 km/h (1 Bft)
17.10.2018 10:42 25,7 C 13,7 C 16,4 C 48 % 76 % 1019,7 hPa 0,0 l/m 2,4 km/h (1 Bft) SW 225 9,5 C 13,7 C 4,1 km/h (1 Bft)
17.10.2018 10:40 25,7 C 13,7 C 16,3 C 48 % 76 % 1019,7 hPa 0,0 l/m 2,1 km/h (1 Bft) S-SO 157 9,5 C 13,7 C 3,9 km/h (1 Bft)
17.10.2018 10:38 25,7 C 13,6 C 15,9 C 48 % 77 % 1019,7 hPa 0,0 l/m 1,9 km/h (1 Bft) S-SW 202 9,6 C 13,6 C 5,2 km/h (1 Bft)
17.10.2018 10:36 25,7 C 13,5 C 15,7 C 48 % 76 % 1019,7 hPa 0,0 l/m 1,9 km/h (1 Bft) S-SO 157 9,4 C 13,5 C 5,2 km/h (1 Bft)
17.10.2018 10:34 25,6 C 13,4 C 15,4 C 48 % 76 % 1019,7 hPa 0,0 l/m 2,1 km/h (1 Bft) S-SW 202 9,3 C 13,4 C 3,7 km/h (1 Bft)
17.10.2018 10:32 25,6 C 13,2 C 15,4 C 48 % 76 % 1019,7 hPa 0,0 l/m 2,4 km/h (1 Bft) SW 225 9,1 C 13,2 C 0,0 km/h (0 Bft)
17.10.2018 10:30 25,6 C 13,2 C 15,3 C 48 % 76 % 1019,7 hPa 0,0 l/m 2,9 km/h (1 Bft) S-SW 202 9,1 C 13,2 C 4,1 km/h (1 Bft)
17.10.2018 10:28 25,6 C 13,2 C 15,3 C 48 % 77 % 1019,7 hPa 0,0 l/m 3,1 km/h (1 Bft) S 180 9,3 C 13,2 C 4,1 km/h (1 Bft)
17.10.2018 10:26 25,6 C 13,1 C 15,3 C 48 % 76 % 1019,6 hPa 0,0 l/m 2,9 km/h (1 Bft) S-SO 157 9,0 C 13,1 C 5,2 km/h (1 Bft)
17.10.2018 10:24 25,6 C 13,2 C 15,2 C 48 % 76 % 1019,6 hPa 0,0 l/m 2,6 km/h (1 Bft) S 180 9,1 C 13,2 C 5,2 km/h (1 Bft)
17.10.2018 10:22 25,5 C 13,3 C 15,1 C 48 % 76 % 1019,6 hPa 0,0 l/m 2,1 km/h (1 Bft) S-SW 202 9,2 C 13,3 C 4,2 km/h (1 Bft)
17.10.2018 10:20 25,5 C 13,2 C 15,1 C 48 % 76 % 1019,6 hPa 0,0 l/m 1,9 km/h (1 Bft) SW 225 9,1 C 13,2 C 4,2 km/h (1 Bft)
17.10.2018 10:18 25,5 C 13,2 C 15,2 C 48 % 76 % 1019,6 hPa 0,0 l/m 1,6 km/h (1 Bft) S-SW 202 9,1 C 13,2 C 4,1 km/h (1 Bft)
17.10.2018 10:16 25,4 C 13,1 C 15,2 C 48 % 76 % 1019,6 hPa 0,0 l/m 1,6 km/h (1 Bft) SO 135 9,0 C 13,1 C 3,5 km/h (1 Bft)
17.10.2018 10:14 25,4 C 13,2 C 15,2 C 48 % 77 % 1019,6 hPa 0,0 l/m 1,8 km/h (1 Bft) S-SO 157 9,3 C 13,2 C 3,5 km/h (1 Bft)
17.10.2018 10:12 25,4 C 13,1 C 15,2 C 48 % 77 % 1019,6 hPa 0,0 l/m 1,8 km/h (1 Bft) SW 225 9,2 C 13,1 C 2,7 km/h (1 Bft)
17.10.2018 10:10 25,4 C 13,1 C 15,1 C 48 % 77 % 1019,6 hPa 0,0 l/m 2,3 km/h (1 Bft) S-SO 157 9,2 C 13,1 C 2,7 km/h (1 Bft)
17.10.2018 10:08 25,4 C 13,0 C 15,0 C 48 % 77 % 1019,6 hPa 0,0 l/m 2,6 km/h (1 Bft) S 180 9,1 C 13,0 C 3,1 km/h (1 Bft)
17.10.2018 10:06 25,3 C 13,0 C 14,9 C 48 % 77 % 1019,4 hPa 0,0 l/m 2,6 km/h (1 Bft) S-SO 157 9,1 C 13,0 C 3,1 km/h (1 Bft)
17.10.2018 10:04 25,2 C 13,0 C 14,7 C 48 % 77 % 1019,4 hPa 0,0 l/m 2,7 km/h (1 Bft) S-SO 157 9,1 C 13,0 C 3,7 km/h (1 Bft)
17.10.2018 10:02 25,3 C 13,0 C 14,4 C 48 % 77 % 1019,4 hPa 0,0 l/m 2,3 km/h (1 Bft) S 180 9,1 C 13,0 C 5,2 km/h (1 Bft)
17.10.2018 10:00 25,2 C 13,0 C 14,3 C 48 % 77 % 1019,4 hPa 0,0 l/m 1,6 km/h (1 Bft) S 180 9,1 C 13,0 C 5,2 km/h (1 Bft)
17.10.2018 09:58 25,2 C 13,0 C 14,2 C 48 % 76 % 1019,4 hPa 0,0 l/m 1,1 km/h (1 Bft) S-SW 202 8,9 C 13,0 C 4,6 km/h (1 Bft)
17.10.2018 09:56 25,2 C 13,0 C 14,0 C 48 % 76 % 1019,4 hPa 0,0 l/m 0,6 km/h (0 Bft) S 180 8,9 C 13,0 C 0,0 km/h (0 Bft)
17.10.2018 09:54 25,2 C 13,0 C 13,7 C 48 % 76 % 1019,4 hPa 0,0 l/m 0,8 km/h (0 Bft) S 180 8,9 C 13,0 C 0,0 km/h (0 Bft)
17.10.2018 09:52 25,1 C 12,9 C 13,6 C 48 % 77 % 1019,4 hPa 0,0 l/m 1,0 km/h (0 Bft) W-SW 247 9,0 C 12,9 C 1,9 km/h (1 Bft)
17.10.2018 09:50 25,1 C 12,9 C 13,8 C 48 % 77 % 1019,4 hPa 0,0 l/m 1,1 km/h (1 Bft) SO 135 9,0 C 12,9 C 1,9 km/h (1 Bft)
17.10.2018 09:48 25,0 C 12,7 C 13,7 C 49 % 77 % 1019,4 hPa 0,0 l/m 1,8 km/h (1 Bft) S-SO 157 8,8 C 12,7 C 0,0 km/h (0 Bft)
17.10.2018 09:46 25,1 C 12,7 C 13,6 C 49 % 77 % 1019,2 hPa 0,0 l/m 2,1 km/h (1 Bft) S-SO 157 8,8 C 12,7 C 3,5 km/h (1 Bft)
17.10.2018 09:44 25,0 C 12,7 C 13,5 C 49 % 77 % 1019,2 hPa 0,0 l/m 1,9 km/h (1 Bft) O 90 8,8 C 12,7 C 3,5 km/h (1 Bft)
17.10.2018 09:42 25,0 C 12,6 C 13,4 C 49 % 77 % 1019,2 hPa 0,0 l/m 1,8 km/h (1 Bft) S-SO 157 8,7 C 12,6 C 2,7 km/h (1 Bft)
17.10.2018 09:40 25,0 C 12,5 C 13,3 C 49 % 77 % 1019,2 hPa 0,0 l/m 1,9 km/h (1 Bft) O-NO 67 8,6 C 12,5 C 4,1 km/h (1 Bft)
17.10.2018 09:38 24,9 C 12,5 C 13,2 C 49 % 78 % 1019,2 hPa 0,0 l/m 1,8 km/h (1 Bft) SO 135 8,8 C 12,5 C 4,4 km/h (1 Bft)
17.10.2018 09:36 24,9 C 12,5 C 13,2 C 49 % 78 % 1019,2 hPa 0,0 l/m 1,6 km/h (1 Bft) O-SO 112 8,8 C 12,5 C 4,4 km/h (1 Bft)
17.10.2018 09:34 24,8 C 12,5 C 13,1 C 49 % 78 % 1019,2 hPa 0,0 l/m 1,6 km/h (1 Bft) O-SO 112 8,8 C 12,5 C 3,7 km/h (1 Bft)
17.10.2018 09:32 24,8 C 12,4 C 12,9 C 49 % 78 % 1019,2 hPa 0,0 l/m 1,3 km/h (1 Bft) O-SO 112 8,7 C 12,4 C 4,4 km/h (1 Bft)
17.10.2018 09:30 24,8 C 12,5 C 12,9 C 49 % 79 % 1019,2 hPa 0,0 l/m 1,0 km/h (0 Bft) S-SO 157 9,0 C 12,5 C 4,4 km/h (1 Bft)
17.10.2018 09:28 24,8 C 12,4 C 12,7 C 49 % 79 % 1019,2 hPa 0,0 l/m 1,3 km/h (1 Bft) O-NO 67 8,9 C 12,4 C 4,2 km/h (1 Bft)
17.10.2018 09:26 24,7 C 12,3 C 12,7 C 49 % 79 % 1018,8 hPa 0,0 l/m 1,6 km/h (1 Bft) O 90 8,8 C 12,3 C 4,2 km/h (1 Bft)
17.10.2018 09:24 24,6 C 12,2 C 12,6 C 49 % 79 % 1018,8 hPa 0,0 l/m 1,6 km/h (1 Bft) O-SO 112 8,7 C 12,2 C 3,3 km/h (1 Bft)
17.10.2018 09:22 24,6 C 12,1 C 12,5 C 49 % 79 % 1018,8 hPa 0,0 l/m 1,8 km/h (1 Bft) O-SO 112 8,6 C 12,1 C 0,0 km/h (0 Bft)
17.10.2018 09:20 24,6 C 12,0 C 12,3 C 49 % 80 % 1018,8 hPa 0,0 l/m 1,9 km/h (1 Bft) O 90 8,7 C 12,0 C 4,8 km/h (1 Bft)
17.10.2018 09:18 24,6 C 11,9 C 12,3 C 49 % 80 % 1018,8 hPa 0,0 l/m 2,1 km/h (1 Bft) O 90 8,6 C 11,9 C 4,8 km/h (1 Bft)
17.10.2018 09:16 24,5 C 11,8 C 12,1 C 49 % 80 % 1018,8 hPa 0,0 l/m 1,9 km/h (1 Bft) SO 135 8,5 C 11,8 C 3,5 km/h (1 Bft)
17.10.2018 09:14 24,5 C 11,8 C 11,9 C 49 % 81 % 1018,8 hPa 0,0 l/m 2,3 km/h (1 Bft) SO 135 8,6 C 11,8 C 3,5 km/h (1 Bft)
17.10.2018 09:12 24,4 C 11,8 C 11,8 C 49 % 81 % 1018,8 hPa 0,0 l/m 2,6 km/h (1 Bft) O-SO 112 8,6 C 11,8 C 2,7 km/h (1 Bft)
17.10.2018 09:10 24,4 C 11,7 C 11,8 C 49 % 82 % 1018,8 hPa 0,0 l/m 2,9 km/h (1 Bft) O-SO 112 8,7 C 11,7 C 2,9 km/h (1 Bft)
17.10.2018 09:08 24,2 C 11,6 C 11,7 C 49 % 82 % 1018,8 hPa 0,0 l/m 3,2 km/h (1 Bft) SO 135 8,6 C 11,6 C 4,1 km/h (1 Bft)
17.10.2018 09:06 24,3 C 11,5 C 11,5 C 49 % 82 % 1018,5 hPa 0,0 l/m 3,1 km/h (1 Bft) NO 45 8,5 C 11,5 C 5,8 km/h (2 Bft)
17.10.2018 09:04 24,2 C 11,5 C 11,4 C 49 % 82 % 1018,5 hPa 0,0 l/m 2,6 km/h (1 Bft) N-NO 22 8,5 C 11,5 C 5,8 km/h (2 Bft)
17.10.2018 09:02 24,2 C 11,5 C 11,4 C 49 % 82 % 1018,5 hPa 0,0 l/m 2,1 km/h (1 Bft) NO 45 8,5 C 11,5 C 5,2 km/h (1 Bft)
17.10.2018 09:00 24,1 C 11,4 C 11,2 C 49 % 82 % 1018,5 hPa 0,0 l/m 1,8 km/h (1 Bft) NO 45 8,4 C 11,4 C 5,2 km/h (1 Bft)
17.10.2018 08:58 24,1 C 11,4 C 11,0 C 49 % 82 % 1018,5 hPa 0,0 l/m 1,8 km/h (1 Bft) O-NO 67 8,4 C 11,4 C 3,5 km/h (1 Bft)
17.10.2018 08:56 24,0 C 11,3 C 11,0 C 49 % 82 % 1018,5 hPa 0,0 l/m 1,8 km/h (1 Bft) NO 45 8,3 C 11,3 C 3,5 km/h (1 Bft)
17.10.2018 08:54 24,0 C 11,1 C 10,9 C 50 % 82 % 1018,5 hPa 0,0 l/m 1,8 km/h (1 Bft) NO 45 8,1 C 11,1 C 2,7 km/h (1 Bft)
17.10.2018 08:52 24,0 C 11,1 C 10,8 C 50 % 82 % 1018,5 hPa 0,0 l/m 1,9 km/h (1 Bft) O-NO 67 8,1 C 11,1 C 2,1 km/h (1 Bft)
17.10.2018 08:50 24,0 C 11,0 C 10,7 C 50 % 82 % 1018,5 hPa 0,0 l/m 2,3 km/h (1 Bft) NO 45 8,0 C 11,0 C 5,8 km/h (2 Bft)
17.10.2018 08:48 23,9 C 10,8 C 10,5 C 50 % 83 % 1018,5 hPa 0,0 l/m 2,6 km/h (1 Bft) NO 45 8,0 C 10,8 C 5,8 km/h (2 Bft)
17.10.2018 08:46 23,9 C 10,7 C 10,4 C 50 % 83 % 1017,6 hPa 0,0 l/m 2,7 km/h (1 Bft) O-NO 67 7,9 C 10,7 C 1,9 km/h (1 Bft)
17.10.2018 08:44 23,8 C 10,5 C 10,3 C 50 % 82 % 1017,6 hPa 0,0 l/m 2,9 km/h (1 Bft) NO 45 7,6 C 10,5 C 4,4 km/h (1 Bft)
17.10.2018 08:42 23,7 C 10,2 C 10,2 C 50 % 82 % 1017,6 hPa 0,0 l/m 3,5 km/h (1 Bft) NO 45 7,3 C 10,2 C 4,6 km/h (1 Bft)
17.10.2018 08:40 23,8 C 10,1 C 10,1 C 50 % 82 % 1017,6 hPa 0,0 l/m 3,5 km/h (1 Bft) N-NO 22 7,2 C 10,1 C 4,6 km/h (1 Bft)
17.10.2018 08:38 23,7 C 9,9 C 9,8 C 50 % 83 % 1017,6 hPa 0,0 l/m 3,4 km/h (1 Bft) O-NO 67 7,2 C 9,9 C 5,4 km/h (1 Bft)
17.10.2018 08:36 23,6 C 9,8 C 9,8 C 50 % 83 % 1017,6 hPa 0,0 l/m 3,2 km/h (1 Bft) NO 45 7,1 C 9,8 C 5,4 km/h (1 Bft)
17.10.2018 08:34 23,6 C 9,7 C 9,7 C 50 % 83 % 1017,6 hPa 0,0 l/m 2,9 km/h (1 Bft) NO 45 7,0 C 9,7 C 5,0 km/h (1 Bft)
17.10.2018 08:32 23,6 C 9,6 C 9,6 C 50 % 83 % 1017,6 hPa 0,0 l/m 2,7 km/h (1 Bft) O-NO 67 6,9 C 9,6 C 4,8 km/h (1 Bft)
17.10.2018 08:30 23,5 C 9,4 C 9,5 C 50 % 83 % 1017,6 hPa 0,0 l/m 2,7 km/h (1 Bft) O-NO 67 6,7 C 9,4 C 4,8 km/h (1 Bft)
17.10.2018 08:28 23,5 C 9,4 C 9,5 C 50 % 83 % 1017,6 hPa 0,0 l/m 2,9 km/h (1 Bft) O-NO 67 6,7 C 9,4 C 4,6 km/h (1 Bft)
17.10.2018 08:26 23,5 C 9,2 C 9,3 C 50 % 83 % 1017,9 hPa 0,0 l/m 3,2 km/h (1 Bft) NO 45 6,5 C 9,2 C 4,6 km/h (1 Bft)
17.10.2018 08:24 23,4 C 9,1 C 9,2 C 50 % 83 % 1017,9 hPa 0,0 l/m 3,4 km/h (1 Bft) NO 45 6,4 C 9,1 C 3,9 km/h (1 Bft)
17.10.2018 08:22 23,4 C 9,0 C 9,1 C 50 % 83 % 1017,9 hPa 0,0 l/m 3,9 km/h (1 Bft) NO 45 6,3 C 9,0 C 4,2 km/h (1 Bft)
17.10.2018 08:20 23,4 C 8,9 C 8,9 C 50 % 83 % 1017,9 hPa 0,0 l/m 4,0 km/h (1 Bft) NO 45 6,2 C 8,9 C 5,8 km/h (2 Bft)
17.10.2018 08:18 23,2 C 8,8 C 8,9 C 50 % 83 % 1017,9 hPa 0,0 l/m 4,0 km/h (1 Bft) NO 45 6,1 C 8,8 C 5,8 km/h (2 Bft)
17.10.2018 08:16 23,4 C 8,7 C 8,9 C 51 % 83 % 1017,9 hPa 0,0 l/m 4,0 km/h (1 Bft) NO 45 6,0 C 8,7 C 5,4 km/h (1 Bft)
17.10.2018 08:14 23,3 C 8,7 C 8,7 C 51 % 83 % 1017,9 hPa 0,0 l/m 4,2 km/h (1 Bft) N-NO 22 6,0 C 8,7 C 5,4 km/h (1 Bft)
17.10.2018 08:12 23,2 C 8,7 C 8,7 C 51 % 83 % 1017,9 hPa 0,0 l/m 4,7 km/h (1 Bft) NO 45 6,0 C 8,4 C 5,2 km/h (1 Bft)
17.10.2018 08:10 23,3 C 8,6 C 8,7 C 51 % 83 % 1017,9 hPa 0,0 l/m 5,1 km/h (1 Bft) O-NO 67 5,9 C 8,1 C 5,2 km/h (1 Bft)
17.10.2018 08:08 23,2 C 8,6 C 8,9 C 51 % 83 % 1017,9 hPa 0,0 l/m 5,6 km/h (1 Bft) NO 45 5,9 C 8,0 C 6,0 km/h (2 Bft)
17.10.2018 08:06 23,2 C 8,6 C 8,7 C 51 % 83 % 1017,9 hPa 0,0 l/m 6,3 km/h (2 Bft) N-NO 22 5,9 C 7,8 C 7,3 km/h (2 Bft)
17.10.2018 08:04 23,2 C 8,5 C 8,7 C 51 % 83 % 1017,9 hPa 0,0 l/m 6,4 km/h (2 Bft) NO 45 5,8 C 7,6 C 9,1 km/h (2 Bft)
17.10.2018 08:02 23,2 C 8,4 C 8,6 C 51 % 83 % 1017,9 hPa 0,0 l/m 6,6 km/h (2 Bft) NO 45 5,7 C 7,5 C 10,0 km/h (2 Bft)
17.10.2018 08:00 23,1 C 8,3 C 8,3 C 51 % 83 % 1017,9 hPa 0,0 l/m 6,6 km/h (2 Bft) NO 45 5,6 C 7,4 C 10,0 km/h (2 Bft)
17.10.2018 07:58 23,1 C 8,2 C 8,2 C 51 % 83 % 1017,9 hPa 0,0 l/m 6,3 km/h (2 Bft) N-NO 22 5,5 C 7,3 C 9,5 km/h (2 Bft)
17.10.2018 07:56 23,1 C 8,2 C 8,2 C 51 % 83 % 1017,9 hPa 0,0 l/m 6,0 km/h (2 Bft) NO 45 5,5 C 7,4 C 9,3 km/h (2 Bft)
17.10.2018 07:54 23,1 C 8,1 C 8,1 C 51 % 83 % 1017,9 hPa 0,0 l/m 6,0 km/h (2 Bft) NO 45 5,4 C 7,3 C 7,1 km/h (2 Bft)
17.10.2018 07:52 23,1 C 8,1 C 8,0 C 51 % 83 % 1017,9 hPa 0,0 l/m 5,8 km/h (2 Bft) NO 45 5,4 C 7,3 C 7,7 km/h (2 Bft)
17.10.2018 07:50 23,1 C 8,1 C 7,9 C 51 % 83 % 1017,9 hPa 0,0 l/m 5,5 km/h (1 Bft) NO 45 5,4 C 7,4 C 7,7 km/h (2 Bft)
17.10.2018 07:48 23,1 C 8,2 C 7,9 C 51 % 83 % 1017,9 hPa 0,0 l/m 4,8 km/h (1 Bft) NO 45 5,5 C 7,8 C 7,0 km/h (2 Bft)
17.10.2018 07:46 23,1 C 8,2 C 8,0 C 51 % 83 % 1017,9 hPa 0,0 l/m 5,0 km/h (1 Bft) NO 45 5,5 C 7,7 C 8,1 km/h (2 Bft)
17.10.2018 07:44 23,1 C 8,4 C 8,2 C 51 % 83 % 1017,6 hPa 0,0 l/m 5,0 km/h (1 Bft) NO 45 5,7 C 7,9 C 8,1 km/h (2 Bft)
17.10.2018 07:42 23,0 C 8,5 C 8,3 C 51 % 83 % 1017,6 hPa 0,0 l/m 5,3 km/h (1 Bft) NO 45 5,8 C 8,0 C 7,0 km/h (2 Bft)
17.10.2018 07:40 23,0 C 8,5 C 8,2 C 51 % 83 % 1017,6 hPa 0,0 l/m 5,6 km/h (1 Bft) NO 45 5,8 C 7,9 C 7,0 km/h (2 Bft)
17.10.2018 07:38 23,1 C 8,5 C 8,2 C 51 % 83 % 1017,6 hPa 0,0 l/m 6,3 km/h (2 Bft) N-NO 22 5,8 C 7,7 C 8,3 km/h (2 Bft)
17.10.2018 07:36 23,0 C 8,5 C 8,2 C 51 % 83 % 1017,6 hPa 0,0 l/m 6,6 km/h (2 Bft) N-NO 22 5,8 C 7,6 C 8,5 km/h (2 Bft)
17.10.2018 07:34 23,0 C 8,5 C 8,3 C 51 % 83 % 1017,6 hPa 0,0 l/m 6,6 km/h (2 Bft) NO 45 5,8 C 7,6 C 8,7 km/h (2 Bft)
17.10.2018 07:32 23,0 C 8,5 C 8,3 C 51 % 83 % 1017,6 hPa 0,0 l/m 6,8 km/h (2 Bft) NO 45 5,8 C 7,5 C 8,7 km/h (2 Bft)
17.10.2018 07:30 23,0 C 8,5 C 8,3 C 51 % 83 % 1017,6 hPa 0,0 l/m 6,6 km/h (2 Bft) O-NO 67 5,8 C 7,6 C 8,3 km/h (2 Bft)
17.10.2018 07:28 23,0 C 8,5 C 8,2 C 51 % 83 % 1017,6 hPa 0,0 l/m 6,4 km/h (2 Bft) NO 45 5,8 C 7,6 C 8,3 km/h (2 Bft)
17.10.2018 07:26 23,0 C 8,5 C 8,2 C 51 % 83 % 1017,4 hPa 0,0 l/m 6,6 km/h (2 Bft) NO 45 5,8 C 7,6 C 9,3 km/h (2 Bft)
17.10.2018 07:24 23,0 C 8,5 C 8,1 C 51 % 83 % 1017,4 hPa 0,0 l/m 6,6 km/h (2 Bft) N-NO 22 5,8 C 7,6 C 9,3 km/h (2 Bft)
17.10.2018 07:22 23,0 C 8,5 C 8,2 C 51 % 83 % 1017,4 hPa 0,0 l/m 6,9 km/h (2 Bft) NO 45 5,8 C 7,5 C 8,3 km/h (2 Bft)
17.10.2018 07:20 23,0 C 8,5 C 8,2 C 51 % 83 % 1017,4 hPa 0,0 l/m 7,1 km/h (2 Bft) NO 45 5,8 C 7,5 C 8,3 km/h (2 Bft)
17.10.2018 07:18 23,0 C 8,6 C 8,3 C 51 % 83 % 1017,4 hPa 0,0 l/m 7,1 km/h (2 Bft) NO 45 5,9 C 7,6 C 8,7 km/h (2 Bft)
17.10.2018 07:16 23,0 C 8,6 C 8,3 C 51 % 83 % 1017,4 hPa 0,0 l/m 7,4 km/h (2 Bft) N-NO 22 5,9 C 7,5 C 8,7 km/h (2 Bft)
17.10.2018 07:14 23,0 C 8,6 C 8,3 C 51 % 83 % 1017,4 hPa 0,0 l/m 7,6 km/h (2 Bft) N-NO 22 5,9 C 7,5 C 9,5 km/h (2 Bft)
17.10.2018 07:12 23,0 C 8,7 C 8,3 C 51 % 83 % 1017,4 hPa 0,0 l/m 7,6 km/h (2 Bft) N-NO 22 6,0 C 7,6 C 9,7 km/h (2 Bft)
17.10.2018 07:10 23,0 C 8,7 C 8,4 C 51 % 83 % 1017,4 hPa 0,0 l/m 7,2 km/h (2 Bft) NO 45 6,0 C 7,7 C 9,7 km/h (2 Bft)
17.10.2018 07:08 22,9 C 8,7 C 8,4 C 51 % 83 % 1017,4 hPa 0,0 l/m 7,2 km/h (2 Bft) NO 45 6,0 C 7,7 C 10,4 km/h (2 Bft)
17.10.2018 07:06 22,9 C 8,7 C 8,3 C 51 % 83 % 1017,4 hPa 0,0 l/m 7,1 km/h (2 Bft) NO 45 6,0 C 7,7 C 10,4 km/h (2 Bft)
17.10.2018 07:04 22,9 C 8,6 C 8,2 C 51 % 82 % 1017,4 hPa 0,0 l/m 6,8 km/h (2 Bft) NO 45 5,7 C 7,6 C 10,0 km/h (2 Bft)
17.10.2018 07:02 22,9 C 8,6 C 8,1 C 51 % 82 % 1017,4 hPa 0,0 l/m 6,3 km/h (2 Bft) N-NO 22 5,7 C 7,8 C 10,2 km/h (2 Bft)
17.10.2018 07:00 22,9 C 8,6 C 8,0 C 51 % 82 % 1017,4 hPa 0,0 l/m 6,3 km/h (2 Bft) O-NO 67 5,7 C 7,8 C 10,2 km/h (2 Bft)
17.10.2018 06:58 22,9 C 8,6 C 8,0 C 51 % 82 % 1017,4 hPa 0,0 l/m 6,1 km/h (2 Bft) NO 45 5,7 C 7,8 C 10,2 km/h (2 Bft)
17.10.2018 06:56 22,9 C 8,7 C 7,9 C 51 % 82 % 1017,4 hPa 0,0 l/m 6,0 km/h (2 Bft) N-NO 22 5,8 C 8,0 C 8,1 km/h (2 Bft)
17.10.2018 06:54 22,9 C 8,7 C 7,9 C 51 % 82 % 1017,4 hPa 0,0 l/m 6,0 km/h (2 Bft) N-NO 22 5,8 C 8,0 C 7,9 km/h (2 Bft)
17.10.2018 06:52 22,9 C 8,8 C 7,9 C 51 % 82 % 1017,4 hPa 0,0 l/m 6,0 km/h (2 Bft) NO 45 5,9 C 8,1 C 7,7 km/h (2 Bft)
17.10.2018 06:50 22,9 C 8,8 C 8,0 C 51 % 82 % 1017,4 hPa 0,0 l/m 6,1 km/h (2 Bft) NO 45 5,9 C 8,1 C 7,7 km/h (2 Bft)
17.10.2018 06:48 22,8 C 8,7 C 8,0 C 51 % 82 % 1017,4 hPa 0,0 l/m 6,1 km/h (2 Bft) NO 45 5,8 C 7,9 C 8,9 km/h (2 Bft)
17.10.2018 06:46 22,8 C 8,6 C 7,9 C 51 % 82 % 1017,3 hPa 0,0 l/m 6,0 km/h (2 Bft) NO 45 5,7 C 7,9 C 8,9 km/h (2 Bft)
17.10.2018 06:44 22,8 C 8,6 C 7,8 C 51 % 82 % 1017,3 hPa 0,0 l/m 5,8 km/h (2 Bft) NO 45 5,7 C 7,9 C 9,7 km/h (2 Bft)
17.10.2018 06:42 22,8 C 8,6 C 7,7 C 51 % 82 % 1017,3 hPa 0,0 l/m 5,6 km/h (1 Bft) NO 45 5,7 C 8,0 C 9,7 km/h (2 Bft)
17.10.2018 06:40 22,8 C 8,6 C 7,6 C 51 % 82 % 1017,3 hPa 0,0 l/m 5,5 km/h (1 Bft) NO 45 5,7 C 8,0 C 8,3 km/h (2 Bft)
17.10.2018 06:38 22,8 C 8,5 C 7,6 C 51 % 82 % 1017,3 hPa 0,0 l/m 5,3 km/h (1 Bft) N-NO 22 5,6 C 8,0 C 8,3 km/h (2 Bft)
17.10.2018 06:36 22,8 C 8,5 C 7,5 C 51 % 82 % 1017,3 hPa 0,0 l/m 5,3 km/h (1 Bft) NO 45 5,6 C 8,0 C 7,1 km/h (2 Bft)
17.10.2018 06:34 22,8 C 8,6 C 7,5 C 51 % 82 % 1017,3 hPa 0,0 l/m 5,3 km/h (1 Bft) NO 45 5,7 C 8,1 C 7,1 km/h (2 Bft)
17.10.2018 06:32 22,8 C 8,6 C 7,5 C 51 % 82 % 1017,3 hPa 0,0 l/m 5,3 km/h (1 Bft) NO 45 5,7 C 8,1 C 6,8 km/h (2 Bft)
17.10.2018 06:30 22,8 C 8,6 C 7,3 C 51 % 82 % 1017,3 hPa 0,0 l/m 5,3 km/h (1 Bft) N-NO 22 5,7 C 8,1 C 6,6 km/h (2 Bft)
17.10.2018 06:28 22,8 C 8,5 C 7,5 C 51 % 82 % 1017,3 hPa 0,0 l/m 5,5 km/h (1 Bft) NO 45 5,6 C 7,9 C 7,0 km/h (2 Bft)
17.10.2018 06:26 22,7 C 8,4 C 7,6 C 51 % 82 % 1017,2 hPa 0,0 l/m 5,5 km/h (1 Bft) NO 45 5,5 C 7,8 C 7,0 km/h (2 Bft)
17.10.2018 06:24 22,7 C 8,5 C 7,8 C 51 % 82 % 1017,2 hPa 0,0 l/m 5,5 km/h (1 Bft) N-NO 22 5,6 C 7,9 C 6,6 km/h (2 Bft)
17.10.2018 06:22 22,7 C 8,5 C 7,9 C 51 % 82 % 1017,2 hPa 0,0 l/m 5,8 km/h (2 Bft) NO 45 5,6 C 7,8 C 6,4 km/h (2 Bft)
17.10.2018 06:20 22,7 C 8,5 C 7,8 C 51 % 82 % 1017,2 hPa 0,0 l/m 6,0 km/h (2 Bft) N-NO 22 5,6 C 7,7 C 7,7 km/h (2 Bft)
17.10.2018 06:18 22,6 C 8,4 C 7,6 C 51 % 82 % 1017,2 hPa 0,0 l/m 6,0 km/h (2 Bft) N-NO 22 5,5 C 7,6 C 7,7 km/h (2 Bft)
17.10.2018 06:16 22,6 C 8,3 C 7,5 C 51 % 82 % 1017,2 hPa 0,0 l/m 6,0 km/h (2 Bft) N 360 5,4 C 7,5 C 7,1 km/h (2 Bft)
17.10.2018 06:14 22,6 C 8,1 C 7,2 C 51 % 81 % 1017,2 hPa 0,0 l/m 6,0 km/h (2 Bft) N-NO 22 5,0 C 7,3 C 9,3 km/h (2 Bft)
17.10.2018 06:12 22,6 C 8,5 C 6,4 C 51 % 81 % 1017,2 hPa 0,0 l/m 5,8 km/h (2 Bft) N-NO 22 5,4 C 7,8 C 9,3 km/h (2 Bft)
17.10.2018 06:10 22,6 C 8,5 C 6,4 C 51 % 81 % 1017,2 hPa 0,0 l/m 3,7 km/h (1 Bft) N-NO 22 5,4 C 8,5 C 5,8 km/h (2 Bft)
17.10.2018 06:08 22,5 C 8,5 C 6,4 C 51 % 81 % 1017,2 hPa 0,0 l/m 3,7 km/h (1 Bft) N-NO 22 5,4 C 8,5 C 5,8 km/h (2 Bft)
17.10.2018 06:06 22,5 C 8,5 C 6,4 C 51 % 81 % 1017,2 hPa 0,0 l/m 3,7 km/h (1 Bft) N-NO 22 5,4 C 8,5 C 5,8 km/h (2 Bft)
17.10.2018 06:04 22,5 C 8,5 C 6,4 C 51 % 81 % 1017,3 hPa 0,0 l/m 3,7 km/h (1 Bft) N-NO 22 5,4 C 8,5 C 5,8 km/h (2 Bft)
17.10.2018 06:02 22,5 C 8,5 C 6,4 C 51 % 81 % 1017,3 hPa 0,0 l/m 3,7 km/h (1 Bft) N-NO 22 5,4 C 8,5 C 5,8 km/h (2 Bft)
17.10.2018 06:00 22,5 C 8,5 C 6,4 C 51 % 81 % 1017,3 hPa 0,0 l/m 3,4 km/h (1 Bft) N-NO 22 5,4 C 8,5 C 5,0 km/h (1 Bft)
17.10.2018 05:58 22,5 C 8,6 C 6,3 C 51 % 81 % 1017,3 hPa 0,0 l/m 3,4 km/h (1 Bft) N-NO 22 5,5 C 8,6 C 5,0 km/h (1 Bft)
17.10.2018 05:56 22,5 C 8,6 C 6,3 C 51 % 81 % 1017,3 hPa 0,0 l/m 3,2 km/h (1 Bft) N-NO 22 5,5 C 8,6 C 5,0 km/h (1 Bft)
17.10.2018 05:54 22,5 C 8,7 C 6,1 C 51 % 81 % 1017,3 hPa 0,0 l/m 3,4 km/h (1 Bft) N-NO 22 5,6 C 8,7 C 4,2 km/h (1 Bft)
17.10.2018 05:52 22,5 C 8,8 C 5,9 C 51 % 81 % 1017,3 hPa 0,0 l/m 3,5 km/h (1 Bft) N-NO 22 5,7 C 8,8 C 3,3 km/h (1 Bft)
17.10.2018 05:50 22,5 C 8,7 C 5,7 C 51 % 81 % 1017,3 hPa 0,0 l/m 3,5 km/h (1 Bft) NO 45 5,6 C 8,7 C 5,0 km/h (1 Bft)
17.10.2018 05:48 22,5 C 8,7 C 5,9 C 51 % 81 % 1017,3 hPa 0,0 l/m 3,4 km/h (1 Bft) O-NO 67 5,6 C 8,7 C 5,0 km/h (1 Bft)
17.10.2018 05:46 22,5 C 8,7 C 6,0 C 51 % 81 % 1017,2 hPa 0,0 l/m 3,1 km/h (1 Bft) O-NO 67 5,6 C 8,7 C 5,4 km/h (1 Bft)
17.10.2018 05:44 22,5 C 8,6 C 5,9 C 51 % 81 % 1017,2 hPa 0,0 l/m 2,7 km/h (1 Bft) O-NO 67 5,5 C 8,6 C 5,4 km/h (1 Bft)
17.10.2018 05:42 22,6 C 8,5 C 5,6 C 51 % 81 % 1017,2 hPa 0,0 l/m 2,4 km/h (1 Bft) NO 45 5,4 C 8,5 C 4,1 km/h (1 Bft)
17.10.2018 05:40 22,5 C 8,4 C 5,5 C 51 % 80 % 1017,2 hPa 0,0 l/m 2,4 km/h (1 Bft) NO 45 5,2 C 8,4 C 4,1 km/h (1 Bft)
17.10.2018 05:38 22,6 C 8,3 C 5,5 C 50 % 80 % 1017,2 hPa 0,0 l/m 2,6 km/h (1 Bft) O-NO 67 5,1 C 8,3 C 3,5 km/h (1 Bft)
17.10.2018 05:36 22,5 C 8,3 C 5,5 C 50 % 80 % 1017,2 hPa 0,0 l/m 2,1 km/h (1 Bft) NO 45 5,1 C 8,3 C 3,5 km/h (1 Bft)
17.10.2018 05:34 22,6 C 8,3 C 5,6 C 50 % 80 % 1017,2 hPa 0,0 l/m 1,9 km/h (1 Bft) O-NO 67 5,1 C 8,3 C 3,9 km/h (1 Bft)
17.10.2018 05:32 22,6 C 8,3 C 5,7 C 50 % 80 % 1017,2 hPa 0,0 l/m 1,4 km/h (1 Bft) NO 45 5,1 C 8,3 C 3,9 km/h (1 Bft)
17.10.2018 05:30 22,6 C 8,3 C 5,9 C 50 % 80 % 1017,2 hPa 0,0 l/m 1,0 km/h (0 Bft) NO 45 5,1 C 8,3 C 3,9 km/h (1 Bft)
17.10.2018 05:28 22,6 C 8,3 C 5,7 C 50 % 80 % 1017,2 hPa 0,0 l/m 1,0 km/h (0 Bft) N-NO 22 5,1 C 8,3 C 3,9 km/h (1 Bft)
17.10.2018 05:26 22,6 C 8,4 C 5,6 C 50 % 80 % 1016,9 hPa 0,0 l/m 1,1 km/h (1 Bft) O 90 5,2 C 8,4 C 0,0 km/h (0 Bft)
17.10.2018 05:24 22,6 C 8,4 C 5,4 C 50 % 79 % 1016,9 hPa 0,0 l/m 1,3 km/h (1 Bft) S-SO 157 5,0 C 8,4 C 0,0 km/h (0 Bft)
17.10.2018 05:22 22,6 C 8,5 C 5,6 C 50 % 79 % 1016,9 hPa 0,0 l/m 1,3 km/h (1 Bft) W 270 5,1 C 8,5 C 2,1 km/h (1 Bft)
17.10.2018 05:20 22,6 C 8,5 C 5,7 C 50 % 79 % 1016,9 hPa 0,0 l/m 1,3 km/h (1 Bft) W-NW 292 5,1 C 8,5 C 4,4 km/h (1 Bft)
17.10.2018 05:18 22,6 C 8,6 C 5,7 C 50 % 79 % 1016,9 hPa 0,0 l/m 1,1 km/h (1 Bft) W-NW 292 5,2 C 8,6 C 4,4 km/h (1 Bft)
17.10.2018 05:16 22,6 C 8,6 C 5,7 C 50 % 79 % 1016,9 hPa 0,0 l/m 0,5 km/h (0 Bft) W 270 5,2 C 8,6 C 4,1 km/h (1 Bft)
17.10.2018 05:14 22,6 C 8,7 C 5,9 C 50 % 79 % 1016,9 hPa 0,0 l/m 0,3 km/h (0 Bft) W-NW 292 5,3 C 8,7 C 0,0 km/h (0 Bft)
17.10.2018 05:12 22,6 C 8,7 C 6,1 C 50 % 79 % 1016,9 hPa 0,0 l/m 0,5 km/h (0 Bft) W-NW 292 5,3 C 8,7 C 0,0 km/h (0 Bft)
17.10.2018 05:10 22,6 C 8,8 C 6,1 C 50 % 79 % 1016,9 hPa 0,0 l/m 0,8 km/h (0 Bft) O-NO 67 5,4 C 8,8 C 0,0 km/h (0 Bft)
17.10.2018 05:08 22,5 C 8,8 C 6,5 C 50 % 79 % 1016,9 hPa 0,0 l/m 1,3 km/h (1 Bft) N-NW 337 5,4 C 8,8 C 0,0 km/h (0 Bft)
17.10.2018 05:06 22,6 C 8,9 C 7,1 C 50 % 79 % 1017,1 hPa 0,0 l/m 1,6 km/h (1 Bft) N 360 5,5 C 8,9 C 2,7 km/h (1 Bft)
17.10.2018 05:04 22,5 C 8,9 C 7,1 C 50 % 79 % 1017,1 hPa 0,0 l/m 1,9 km/h (1 Bft) NW 315 5,5 C 8,9 C 3,3 km/h (1 Bft)
17.10.2018 05:01 22,6 C 9,0 C 7,2 C 50 % 78 % 1017,1 hPa 0,0 l/m 2,1 km/h (1 Bft) NW 315 5,4 C 9,0 C 1,9 km/h (1 Bft)
17.10.2018 05:00 22,6 C 9,1 C 7,0 C 50 % 78 % 1017,1 hPa 0,0 l/m 2,1 km/h (1 Bft) NW 315 5,5 C 9,1 C 2,9 km/h (1 Bft)
17.10.2018 04:58 22,6 C 9,1 C 6,8 C 50 % 78 % 1017,1 hPa 0,0 l/m 1,8 km/h (1 Bft) NW 315 5,5 C 9,1 C 2,9 km/h (1 Bft)
17.10.2018 04:56 22,5 C 9,3 C 6,7 C 50 % 78 % 1017,1 hPa 0,0 l/m 1,4 km/h (1 Bft) N 360 5,7 C 9,3 C 2,7 km/h (1 Bft)
17.10.2018 04:54 22,6 C 9,6 C 6,7 C 50 % 78 % 1017,1 hPa 0,0 l/m 1,0 km/h (0 Bft) NW 315 6,0 C 9,6 C 4,2 km/h (1 Bft)
17.10.2018 04:52 22,6 C 9,6 C 6,8 C 50 % 78 % 1017,1 hPa 0,0 l/m 0,6 km/h (0 Bft) N-NO 22 6,0 C 9,6 C 4,2 km/h (1 Bft)
17.10.2018 04:50 22,6 C 9,7 C 6,9 C 50 % 78 % 1017,1 hPa 0,0 l/m 0,5 km/h (0 Bft) N 360 6,1 C 9,7 C 2,5 km/h (1 Bft)
17.10.2018 04:48 22,6 C 9,7 C 6,8 C 50 % 78 % 1017,1 hPa 0,0 l/m 0,6 km/h (0 Bft) N-NO 22 6,1 C 9,7 C 0,0 km/h (0 Bft)
17.10.2018 04:46 22,6 C 9,8 C 6,9 C 50 % 78 % 1017,1 hPa 0,0 l/m 1,4 km/h (1 Bft) N-NW 337 6,1 C 9,8 C 0,0 km/h (0 Bft)
17.10.2018 04:44 22,6 C 9,9 C 7,7 C 50 % 78 % 1017,1 hPa 0,0 l/m 2,1 km/h (1 Bft) O 90 6,2 C 9,9 C 0,0 km/h (0 Bft)
17.10.2018 04:42 22,6 C 10,1 C 7,7 C 50 % 78 % 1017,1 hPa 0,0 l/m 3,2 km/h (1 Bft) N-NW 337 6,4 C 10,1 C 3,9 km/h (1 Bft)
17.10.2018 04:40 22,6 C 10,2 C 8,2 C 50 % 78 % 1017,1 hPa 0,0 l/m 4,3 km/h (1 Bft) NO 45 6,5 C 10,2 C 3,9 km/h (1 Bft)
17.10.2018 04:38 22,6 C 10,3 C 9,0 C 50 % 78 % 1017,1 hPa 0,0 l/m 5,1 km/h (1 Bft) NO 45 6,6 C 10,3 C 6,8 km/h (2 Bft)
17.10.2018 04:36 22,6 C 10,5 C 9,2 C 50 % 78 % 1017,1 hPa 0,0 l/m 6,1 km/h (2 Bft) NO 45 6,8 C 10,5 C 8,3 km/h (2 Bft)
17.10.2018 04:34 22,6 C 10,6 C 9,3 C 50 % 78 % 1017,1 hPa 0,0 l/m 6,4 km/h (2 Bft) O-NO 67 6,9 C 10,6 C 8,5 km/h (2 Bft)
17.10.2018 04:32 22,6 C 10,7 C 9,5 C 50 % 78 % 1017,1 hPa 0,0 l/m 6,9 km/h (2 Bft) NO 45 7,0 C 10,7 C 8,5 km/h (2 Bft)
17.10.2018 04:30 22,6 C 10,7 C 9,6 C 50 % 79 % 1017,1 hPa 0,0 l/m 7,1 km/h (2 Bft) N-NO 22 7,2 C 10,7 C 9,5 km/h (2 Bft)
17.10.2018 04:28 22,6 C 10,7 C 9,6 C 50 % 79 % 1017,1 hPa 0,0 l/m 7,4 km/h (2 Bft) NO 45 7,2 C 10,7 C 10,4 km/h (2 Bft)
17.10.2018 04:26 22,6 C 10,7 C 9,6 C 50 % 79 % 1017,1 hPa 0,0 l/m 7,6 km/h (2 Bft) NO 45 7,2 C 10,7 C 10,4 km/h (2 Bft)
17.10.2018 04:24 22,6 C 10,7 C 9,6 C 50 % 79 % 1017,1 hPa 0,0 l/m 7,2 km/h (2 Bft) NO 45 7,2 C 10,7 C 10,6 km/h (2 Bft)
17.10.2018 04:22 22,6 C 10,7 C 9,6 C 50 % 79 % 1017,1 hPa 0,0 l/m 7,6 km/h (2 Bft) O-NO 67 7,2 C 10,7 C 10,6 km/h (2 Bft)
17.10.2018 04:20 22,6 C 10,7 C 9,6 C 50 % 79 % 1017,1 hPa 0,0 l/m 7,7 km/h (2 Bft) O-NO 67 7,2 C 10,7 C 10,8 km/h (2 Bft)
17.10.2018 04:18 22,6 C 10,7 C 9,6 C 50 % 79 % 1017,1 hPa 0,0 l/m 7,4 km/h (2 Bft) NO 45 7,2 C 10,7 C 10,8 km/h (2 Bft)
17.10.2018 04:16 22,6 C 10,7 C 9,7 C 50 % 79 % 1017,1 hPa 0,0 l/m 7,2 km/h (2 Bft) O-NO 67 7,2 C 10,7 C 7,7 km/h (2 Bft)
17.10.2018 04:14 22,6 C 10,7 C 9,6 C 50 % 79 % 1017,1 hPa 0,0 l/m 7,6 km/h (2 Bft) O-NO 67 7,2 C 10,7 C 8,9 km/h (2 Bft)
17.10.2018 04:12 22,6 C 10,7 C 9,6 C 50 % 79 % 1017,1 hPa 0,0 l/m 7,2 km/h (2 Bft) O-NO 67 7,2 C 10,7 C 11,2 km/h (2 Bft)
17.10.2018 04:10 22,6 C 10,7 C 9,6 C 50 % 79 % 1017,1 hPa 0,0 l/m 7,2 km/h (2 Bft) O-NO 67 7,2 C 10,7 C 11,2 km/h (2 Bft)
17.10.2018 04:08 22,6 C 10,7 C 9,6 C 50 % 79 % 1017,1 hPa 0,0 l/m 6,9 km/h (2 Bft) NO 45 7,2 C 10,7 C 8,9 km/h (2 Bft)
17.10.2018 04:06 22,6 C 10,6 C 9,5 C 50 % 79 % 1017,1 hPa 0,0 l/m 6,9 km/h (2 Bft) O 90 7,1 C 10,6 C 13,9 km/h (3 Bft)
17.10.2018 04:04 22,6 C 10,6 C 9,3 C 50 % 79 % 1017,1 hPa 0,0 l/m 6,9 km/h (2 Bft) O-NO 67 7,1 C 10,6 C 11,2 km/h (2 Bft)
17.10.2018 04:02 22,6 C 10,6 C 9,3 C 50 % 79 % 1017,1 hPa 0,0 l/m 6,8 km/h (2 Bft) O-NO 67 7,1 C 10,6 C 10,0 km/h (2 Bft)
17.10.2018 04:00 22,6 C 10,6 C 9,2 C 50 % 78 % 1017,1 hPa 0,0 l/m 6,6 km/h (2 Bft) O-NO 67 6,9 C 10,6 C 10,0 km/h (2 Bft)
17.10.2018 03:58 22,6 C 10,6 C 9,2 C 50 % 78 % 1017,1 hPa 0,0 l/m 6,4 km/h (2 Bft) O-NO 67 6,9 C 10,6 C 10,0 km/h (2 Bft)
17.10.2018 03:56 22,6 C 10,6 C 9,2 C 50 % 78 % 1017,1 hPa 0,0 l/m 6,4 km/h (2 Bft) O-NO 67 6,9 C 10,6 C 9,7 km/h (2 Bft)
17.10.2018 03:54 22,6 C 10,5 C 9,0 C 50 % 78 % 1017,1 hPa 0,0 l/m 6,1 km/h (2 Bft) NO 45 6,8 C 10,5 C 8,9 km/h (2 Bft)
17.10.2018 03:52 22,6 C 10,5 C 8,9 C 50 % 78 % 1017,1 hPa 0,0 l/m 5,8 km/h (2 Bft) NO 45 6,8 C 10,5 C 8,9 km/h (2 Bft)
17.10.2018 03:50 22,6 C 10,5 C 8,8 C 50 % 78 % 1017,1 hPa 0,0 l/m 5,6 km/h (1 Bft) N-NO 22 6,8 C 10,5 C 9,1 km/h (2 Bft)
17.10.2018 03:48 22,6 C 10,4 C 8,7 C 50 % 78 % 1017,1 hPa 0,0 l/m 5,5 km/h (1 Bft) NO 45 6,7 C 10,4 C 9,1 km/h (2 Bft)
17.10.2018 03:46 22,6 C 10,3 C 8,5 C 50 % 78 % 1017,2 hPa 0,0 l/m 5,3 km/h (1 Bft) NO 45 6,6 C 10,3 C 8,7 km/h (2 Bft)
17.10.2018 03:44 22,6 C 10,2 C 8,3 C 50 % 78 % 1017,2 hPa 0,0 l/m 5,0 km/h (1 Bft) O-NO 67 6,5 C 10,2 C 7,5 km/h (2 Bft)
17.10.2018 03:42 22,6 C 10,2 C 8,2 C 50 % 78 % 1017,2 hPa 0,0 l/m 4,7 km/h (1 Bft) NO 45 6,5 C 10,2 C 8,1 km/h (2 Bft)
17.10.2018 03:40 22,6 C 10,1 C 8,0 C 50 % 78 % 1017,2 hPa 0,0 l/m 4,5 km/h (1 Bft) O-NO 67 6,4 C 10,1 C 8,1 km/h (2 Bft)
17.10.2018 03:38 22,6 C 10,0 C 7,7 C 50 % 78 % 1017,2 hPa 0,0 l/m 4,2 km/h (1 Bft) N-NO 22 6,3 C 10,0 C 7,1 km/h (2 Bft)
17.10.2018 03:36 22,6 C 9,8 C 7,5 C 50 % 78 % 1017,2 hPa 0,0 l/m 4,0 km/h (1 Bft) N-NO 22 6,1 C 9,8 C 7,1 km/h (2 Bft)
17.10.2018 03:34 22,6 C 9,7 C 7,1 C 50 % 78 % 1017,2 hPa 0,0 l/m 3,7 km/h (1 Bft) N-NO 22 6,1 C 9,7 C 4,4 km/h (1 Bft)
17.10.2018 03:32 22,6 C 9,4 C 6,8 C 50 % 78 % 1017,2 hPa 0,0 l/m 3,5 km/h (1 Bft) N-NO 22 5,8 C 9,4 C 4,6 km/h (1 Bft)
17.10.2018 03:30 22,6 C 9,3 C 6,8 C 50 % 78 % 1017,2 hPa 0,0 l/m 3,5 km/h (1 Bft) NO 45 5,7 C 9,3 C 6,0 km/h (2 Bft)
17.10.2018 03:28 22,6 C 9,1 C 6,6 C 50 % 77 % 1017,2 hPa 0,0 l/m 3,5 km/h (1 Bft) N-NO 22 5,3 C 9,1 C 6,0 km/h (2 Bft)
17.10.2018 03:26 22,6 C 9,0 C 6,5 C 50 % 77 % 1017,6 hPa 0,0 l/m 3,4 km/h (1 Bft) N-NO 22 5,2 C 9,0 C 3,7 km/h (1 Bft)
17.10.2018 03:24 22,6 C 9,0 C 6,6 C 50 % 77 % 1017,6 hPa 0,0 l/m 3,5 km/h (1 Bft) N-NO 22 5,2 C 9,0 C 4,4 km/h (1 Bft)
17.10.2018 03:22 22,6 C 9,0 C 6,5 C 50 % 77 % 1017,6 hPa 0,0 l/m 3,5 km/h (1 Bft) N-NO 22 5,2 C 9,0 C 5,0 km/h (1 Bft)
17.10.2018 03:20 22,6 C 8,9 C 6,4 C 50 % 77 % 1017,6 hPa 0,0 l/m 3,7 km/h (1 Bft) N-NO 22 5,1 C 8,9 C 5,2 km/h (1 Bft)
17.10.2018 03:18 22,6 C 8,9 C 6,6 C 50 % 77 % 1017,6 hPa 0,0 l/m 3,5 km/h (1 Bft) N-NO 22 5,1 C 8,9 C 5,2 km/h (1 Bft)
17.10.2018 03:16 22,6 C 8,9 C 6,6 C 50 % 77 % 1017,6 hPa 0,0 l/m 3,5 km/h (1 Bft) N 360 5,1 C 8,9 C 5,2 km/h (1 Bft)
17.10.2018 03:14 22,6 C 8,9 C 6,8 C 50 % 77 % 1017,6 hPa 0,0 l/m 3,5 km/h (1 Bft) N 360 5,1 C 8,9 C 5,2 km/h (1 Bft)
17.10.2018 03:12 22,6 C 8,9 C 7,2 C 50 % 77 % 1017,6 hPa 0,0 l/m 4,3 km/h (1 Bft) N 360 5,1 C 8,9 C 5,0 km/h (1 Bft)
17.10.2018 03:10 22,6 C 9,1 C 7,2 C 51 % 76 % 1017,6 hPa 0,0 l/m 4,3 km/h (1 Bft) N 360 5,1 C 9,1 C 5,0 km/h (1 Bft)
17.10.2018 03:08 22,6 C 9,1 C 7,2 C 51 % 76 % 1017,6 hPa 0,0 l/m 4,3 km/h (1 Bft) N 360 5,1 C 9,1 C 5,0 km/h (1 Bft)
17.10.2018 03:06 22,6 C 9,1 C 7,2 C 51 % 76 % 1017,5 hPa 0,0 l/m 4,3 km/h (1 Bft) N 360 5,1 C 9,1 C 5,0 km/h (1 Bft)
17.10.2018 03:04 22,6 C 9,1 C 7,2 C 51 % 76 % 1017,5 hPa 0,0 l/m 4,3 km/h (1 Bft) N 360 5,1 C 9,1 C 5,0 km/h (1 Bft)
17.10.2018 03:02 22,6 C 9,1 C 7,2 C 51 % 76 % 1017,5 hPa 0,0 l/m 4,3 km/h (1 Bft) N 360 5,1 C 9,1 C 5,4 km/h (1 Bft)
17.10.2018 03:00 22,6 C 9,1 C 7,5 C 51 % 76 % 1017,5 hPa 0,0 l/m 4,5 km/h (1 Bft) N 360 5,1 C 9,1 C 5,4 km/h (1 Bft)
17.10.2018 02:58 22,6 C 9,3 C 7,3 C 51 % 75 % 1017,5 hPa 0,0 l/m 4,5 km/h (1 Bft) N 360 5,1 C 9,3 C 5,8 km/h (2 Bft)
17.10.2018 02:56 22,6 C 9,3 C 7,3 C 51 % 75 % 1017,5 hPa 0,0 l/m 4,8 km/h (1 Bft) N 360 5,1 C 9,0 C 5,8 km/h (2 Bft)
17.10.2018 02:54 22,6 C 9,6 C 7,3 C 51 % 75 % 1017,5 hPa 0,0 l/m 4,8 km/h (1 Bft) N-NO 22 5,4 C 9,4 C 5,4 km/h (1 Bft)
17.10.2018 02:52 22,6 C 9,7 C 7,4 C 51 % 76 % 1017,5 hPa 0,0 l/m 5,0 km/h (1 Bft) N-NO 22 5,7 C 9,4 C 5,8 km/h (2 Bft)
17.10.2018 02:50 22,6 C 9,9 C 7,3 C 51 % 76 % 1017,5 hPa 0,0 l/m 4,7 km/h (1 Bft) N 360 5,9 C 9,7 C 6,2 km/h (2 Bft)
17.10.2018 02:48 22,6 C 9,9 C 7,3 C 51 % 76 % 1017,5 hPa 0,0 l/m 4,7 km/h (1 Bft) N-NO 22 5,9 C 9,7 C 7,5 km/h (2 Bft)
17.10.2018 02:46 22,6 C 9,9 C 7,3 C 51 % 76 % 1017,4 hPa 0,0 l/m 4,5 km/h (1 Bft) N-NO 22 5,9 C 9,9 C 7,5 km/h (2 Bft)
17.10.2018 02:44 22,6 C 9,9 C 7,2 C 51 % 76 % 1017,4 hPa 0,0 l/m 4,3 km/h (1 Bft) N-NO 22 5,9 C 9,9 C 6,2 km/h (2 Bft)
17.10.2018 02:42 22,7 C 9,8 C 7,2 C 51 % 75 % 1017,4 hPa 0,0 l/m 4,3 km/h (1 Bft) N-NO 22 5,6 C 9,8 C 5,2 km/h (1 Bft)
17.10.2018 02:40 22,6 C 9,8 C 7,3 C 51 % 75 % 1017,4 hPa 0,0 l/m 4,5 km/h (1 Bft) N-NO 22 5,6 C 9,8 C 5,8 km/h (2 Bft)
17.10.2018 02:38 22,6 C 9,8 C 7,2 C 51 % 75 % 1017,4 hPa 0,0 l/m 4,5 km/h (1 Bft) N-NO 22 5,6 C 9,8 C 5,8 km/h (2 Bft)
17.10.2018 02:36 22,6 C 9,8 C 7,2 C 51 % 75 % 1017,4 hPa 0,0 l/m 4,3 km/h (1 Bft) N-NO 22 5,6 C 9,8 C 6,0 km/h (2 Bft)
17.10.2018 02:34 22,6 C 9,8 C 7,1 C 51 % 75 % 1017,4 hPa 0,0 l/m 4,3 km/h (1 Bft) N-NO 22 5,6 C 9,8 C 7,9 km/h (2 Bft)
17.10.2018 02:32 22,6 C 9,9 C 7,0 C 51 % 75 % 1017,4 hPa 0,0 l/m 4,3 km/h (1 Bft) N 360 5,7 C 9,9 C 7,9 km/h (2 Bft)
17.10.2018 02:30 22,7 C 10,0 C 7,0 C 51 % 75 % 1017,4 hPa 0,0 l/m 4,2 km/h (1 Bft) N-NO 22 5,8 C 10,0 C 6,0 km/h (2 Bft)
17.10.2018 02:28 22,7 C 10,0 C 7,1 C 51 % 75 % 1017,4 hPa 0,0 l/m 4,2 km/h (1 Bft) N-NO 22 5,8 C 10,0 C 6,0 km/h (2 Bft)
17.10.2018 02:26 22,7 C 10,1 C 7,0 C 51 % 75 % 1017,3 hPa 0,0 l/m 4,2 km/h (1 Bft) N-NO 22 5,9 C 10,1 C 5,0 km/h (1 Bft)
17.10.2018 02:24 22,7 C 10,2 C 7,0 C 51 % 75 % 1017,3 hPa 0,0 l/m 4,3 km/h (1 Bft) N 360 6,0 C 10,2 C 6,0 km/h (2 Bft)
17.10.2018 02:22 22,7 C 10,2 C 7,0 C 50 % 75 % 1017,3 hPa 0,0 l/m 4,3 km/h (1 Bft) N 360 6,0 C 10,2 C 6,0 km/h (2 Bft)
17.10.2018 02:20 22,7 C 10,2 C 7,0 C 50 % 75 % 1017,3 hPa 0,0 l/m 4,5 km/h (1 Bft) N-NO 22 6,0 C 10,2 C 6,0 km/h (2 Bft)
17.10.2018 02:18 22,7 C 10,2 C 7,1 C 50 % 75 % 1017,3 hPa 0,0 l/m 3,9 km/h (1 Bft) N-NO 22 6,0 C 10,2 C 5,8 km/h (2 Bft)
17.10.2018 02:16 22,7 C 10,2 C 7,1 C 50 % 75 % 1017,3 hPa 0,0 l/m 3,4 km/h (1 Bft) N-NO 22 6,0 C 10,2 C 6,0 km/h (2 Bft)
17.10.2018 02:14 22,7 C 10,1 C 6,9 C 50 % 75 % 1017,3 hPa 0,0 l/m 2,6 km/h (1 Bft) N-NO 22 5,9 C 10,1 C 6,0 km/h (2 Bft)
17.10.2018 02:12 22,7 C 10,0 C 6,6 C 50 % 75 % 1017,3 hPa 0,0 l/m 1,8 km/h (1 Bft) N 360 5,8 C 10,0 C 6,2 km/h (2 Bft)
17.10.2018 02:10 22,7 C 9,9 C 6,4 C 50 % 75 % 1017,3 hPa 0,0 l/m 1,1 km/h (1 Bft) N-NO 22 5,7 C 9,9 C 6,2 km/h (2 Bft)
17.10.2018 02:08 22,7 C 9,7 C 6,2 C 50 % 75 % 1017,3 hPa 0,0 l/m 0,8 km/h (0 Bft) N-NW 337 5,5 C 9,7 C 0,0 km/h (0 Bft)
17.10.2018 02:06 22,8 C 9,7 C 5,7 C 50 % 75 % 1017,4 hPa 0,0 l/m 0,6 km/h (0 Bft) N-NO 22 5,5 C 9,7 C 0,0 km/h (0 Bft)
17.10.2018 02:04 22,7 C 9,4 C 5,5 C 50 % 75 % 1017,4 hPa 0,0 l/m 0,6 km/h (0 Bft) N-NO 22 5,2 C 9,4 C 3,5 km/h (1 Bft)
17.10.2018 02:02 22,7 C 9,2 C 5,4 C 50 % 74 % 1017,4 hPa 0,0 l/m 1,1 km/h (1 Bft) NO 45 4,8 C 9,2 C 3,9 km/h (1 Bft)
17.10.2018 02:00 22,8 C 9,2 C 5,7 C 50 % 74 % 1017,4 hPa 0,0 l/m 1,6 km/h (1 Bft) NO 45 4,8 C 9,2 C 3,9 km/h (1 Bft)
17.10.2018 01:58 22,8 C 9,4 C 5,9 C 50 % 74 % 1017,4 hPa 0,0 l/m 1,6 km/h (1 Bft) N-NO 22 5,0 C 9,4 C 2,5 km/h (1 Bft)
17.10.2018 01:56 22,8 C 9,6 C 6,1 C 50 % 74 % 1017,4 hPa 0,0 l/m 1,9 km/h (1 Bft) N-NO 22 5,2 C 9,6 C 0,0 km/h (0 Bft)
17.10.2018 01:54 22,8 C 9,8 C 6,6 C 50 % 74 % 1017,4 hPa 0,0 l/m 2,4 km/h (1 Bft) NW 315 5,4 C 9,8 C 3,5 km/h (1 Bft)
17.10.2018 01:52 22,8 C 9,9 C 6,6 C 50 % 74 % 1017,4 hPa 0,0 l/m 2,9 km/h (1 Bft) N-NO 22 5,5 C 9,9 C 3,7 km/h (1 Bft)
17.10.2018 01:50 22,8 C 10,1 C 6,7 C 50 % 74 % 1017,4 hPa 0,0 l/m 3,1 km/h (1 Bft) N 360 5,7 C 10,1 C 3,7 km/h (1 Bft)
17.10.2018 01:48 22,8 C 10,3 C 7,2 C 50 % 74 % 1017,4 hPa 0,0 l/m 3,4 km/h (1 Bft) N 360 5,9 C 10,3 C 4,4 km/h (1 Bft)
17.10.2018 01:46 22,8 C 10,3 C 7,0 C 50 % 74 % 1017,4 hPa 0,0 l/m 3,7 km/h (1 Bft) N-NO 22 5,9 C 10,3 C 4,4 km/h (1 Bft)
17.10.2018 01:44 22,8 C 10,3 C 7,2 C 50 % 74 % 1017,4 hPa 0,0 l/m 3,9 km/h (1 Bft) N 360 5,9 C 10,3 C 4,6 km/h (1 Bft)
17.10.2018 01:42 22,8 C 10,3 C 7,3 C 50 % 74 % 1017,4 hPa 0,0 l/m 4,0 km/h (1 Bft) N-NO 22 5,9 C 10,3 C 5,4 km/h (1 Bft)
17.10.2018 01:40 22,8 C 10,3 C 7,3 C 50 % 74 % 1017,4 hPa 0,0 l/m 3,9 km/h (1 Bft) N-NO 22 5,9 C 10,3 C 5,4 km/h (1 Bft)
17.10.2018 01:38 22,8 C 10,3 C 7,4 C 50 % 74 % 1017,4 hPa 0,0 l/m 3,9 km/h (1 Bft) N-NO 22 5,9 C 10,3 C 5,6 km/h (1 Bft)
17.10.2018 01:36 22,8 C 10,3 C 7,4 C 50 % 74 % 1017,4 hPa 0,0 l/m 3,7 km/h (1 Bft) N-NO 22 5,9 C 10,3 C 5,6 km/h (1 Bft)
17.10.2018 01:34 22,8 C 10,2 C 7,6 C 50 % 74 % 1017,4 hPa 0,0 l/m 3,7 km/h (1 Bft) N 360 5,8 C 10,2 C 5,0 km/h (1 Bft)
17.10.2018 01:32 22,8 C 10,2 C 7,9 C 50 % 74 % 1017,4 hPa 0,0 l/m 3,7 km/h (1 Bft) N-NO 22 5,8 C 10,2 C 4,6 km/h (1 Bft)
17.10.2018 01:30 22,8 C 10,2 C 7,7 C 50 % 74 % 1017,4 hPa 0,0 l/m 3,7 km/h (1 Bft) N 360 5,8 C 10,2 C 5,0 km/h (1 Bft)
17.10.2018 01:28 22,9 C 10,1 C 7,7 C 50 % 74 % 1017,4 hPa 0,0 l/m 3,7 km/h (1 Bft) N-NO 22 5,7 C 10,1 C 5,0 km/h (1 Bft)
17.10.2018 01:26 22,8 C 10,1 C 7,9 C 50 % 74 % 1017,6 hPa 0,0 l/m 3,7 km/h (1 Bft) N-NW 337 5,7 C 10,1 C 5,0 km/h (1 Bft)
17.10.2018 01:24 22,8 C 10,1 C 7,9 C 50 % 74 % 1017,6 hPa 0,0 l/m 3,9 km/h (1 Bft) N-NW 337 5,7 C 10,1 C 4,8 km/h (1 Bft)
17.10.2018 01:22 22,9 C 10,2 C 8,0 C 50 % 74 % 1017,6 hPa 0,0 l/m 4,0 km/h (1 Bft) N 360 5,8 C 10,2 C 4,8 km/h (1 Bft)
17.10.2018 01:20 22,9 C 10,2 C 8,0 C 50 % 74 % 1017,6 hPa 0,0 l/m 4,0 km/h (1 Bft) N 360 5,8 C 10,2 C 4,6 km/h (1 Bft)
17.10.2018 01:18 22,9 C 10,2 C 8,1 C 50 % 74 % 1017,6 hPa 0,0 l/m 4,3 km/h (1 Bft) N 360 5,8 C 10,2 C 4,6 km/h (1 Bft)
17.10.2018 01:16 22,9 C 10,2 C 8,1 C 50 % 74 % 1017,6 hPa 0,0 l/m 4,5 km/h (1 Bft) N-NO 22 5,8 C 10,2 C 5,8 km/h (2 Bft)
17.10.2018 01:14 22,9 C 10,2 C 8,1 C 50 % 74 % 1017,6 hPa 0,0 l/m 4,3 km/h (1 Bft) N 360 5,8 C 10,2 C 5,8 km/h (2 Bft)
17.10.2018 01:12 22,9 C 10,2 C 8,0 C 50 % 74 % 1017,6 hPa 0,0 l/m 4,7 km/h (1 Bft) N 360 5,8 C 10,2 C 5,8 km/h (2 Bft)
17.10.2018 01:10 22,9 C 10,1 C 8,0 C 50 % 73 % 1017,6 hPa 0,0 l/m 4,8 km/h (1 Bft) N 360 5,5 C 10,1 C 7,0 km/h (2 Bft)
17.10.2018 01:08 22,9 C 10,1 C 8,0 C 50 % 73 % 1017,6 hPa 0,0 l/m 4,8 km/h (1 Bft) N-NO 22 5,5 C 10,1 C 7,0 km/h (2 Bft)
17.10.2018 01:06 22,9 C 10,1 C 8,2 C 50 % 73 % 1017,7 hPa 0,0 l/m 5,0 km/h (1 Bft) N-NO 22 5,5 C 10,1 C 5,8 km/h (2 Bft)
17.10.2018 01:04 22,9 C 10,2 C 8,3 C 50 % 73 % 1017,7 hPa 0,0 l/m 5,1 km/h (1 Bft) N 360 5,6 C 10,2 C 6,2 km/h (2 Bft)
17.10.2018 01:02 22,9 C 10,2 C 8,3 C 50 % 73 % 1017,7 hPa 0,0 l/m 5,3 km/h (1 Bft) N 360 5,6 C 10,2 C 7,0 km/h (2 Bft)
17.10.2018 01:00 22,9 C 10,2 C 8,3 C 50 % 73 % 1017,7 hPa 0,0 l/m 5,3 km/h (1 Bft) N 360 5,6 C 10,2 C 7,0 km/h (2 Bft)
17.10.2018 00:58 22,9 C 10,2 C 8,3 C 51 % 73 % 1017,7 hPa 0,0 l/m 5,3 km/h (1 Bft) N 360 5,6 C 10,2 C 7,0 km/h (2 Bft)
17.10.2018 00:56 23,0 C 10,2 C 8,4 C 51 % 73 % 1017,7 hPa 0,0 l/m 5,5 km/h (1 Bft) N 360 5,6 C 10,2 C 7,0 km/h (2 Bft)
17.10.2018 00:54 23,0 C 10,2 C 8,4 C 51 % 73 % 1017,7 hPa 0,0 l/m 5,5 km/h (1 Bft) N 360 5,6 C 10,2 C 6,8 km/h (2 Bft)
17.10.2018 00:52 23,0 C 10,2 C 8,4 C 51 % 73 % 1017,7 hPa 0,0 l/m 5,8 km/h (2 Bft) N 360 5,6 C 10,2 C 7,3 km/h (2 Bft)
17.10.2018 00:50 23,0 C 10,3 C 8,3 C 51 % 73 % 1017,7 hPa 0,0 l/m 5,8 km/h (2 Bft) N 360 5,7 C 10,3 C 7,5 km/h (2 Bft)
17.10.2018 00:48 23,0 C 10,3 C 8,2 C 51 % 73 % 1017,7 hPa 0,0 l/m 5,6 km/h (1 Bft) N-NO 22 5,7 C 10,3 C 7,5 km/h (2 Bft)
17.10.2018 00:46 23,0 C 10,4 C 8,3 C 51 % 73 % 1017,8 hPa 0,0 l/m 5,3 km/h (1 Bft) N 360 5,8 C 10,4 C 6,8 km/h (2 Bft)
17.10.2018 00:44 23,0 C 10,3 C 8,2 C 51 % 73 % 1017,8 hPa 0,0 l/m 5,1 km/h (1 Bft) N 360 5,7 C 10,3 C 8,5 km/h (2 Bft)
17.10.2018 00:42 23,0 C 10,2 C 8,2 C 51 % 73 % 1017,8 hPa 0,0 l/m 5,0 km/h (1 Bft) N 360 5,6 C 10,2 C 8,5 km/h (2 Bft)
17.10.2018 00:40 23,0 C 10,2 C 8,2 C 51 % 73 % 1017,8 hPa 0,0 l/m 4,7 km/h (1 Bft) N 360 5,6 C 10,2 C 6,6 km/h (2 Bft)
17.10.2018 00:38 23,0 C 10,2 C 8,3 C 51 % 73 % 1017,8 hPa 0,0 l/m 4,5 km/h (1 Bft) N 360 5,6 C 10,2 C 6,6 km/h (2 Bft)
17.10.2018 00:36 23,0 C 10,2 C 8,2 C 51 % 73 % 1017,8 hPa 0,0 l/m 4,7 km/h (1 Bft) N-NO 22 5,6 C 10,2 C 5,2 km/h (1 Bft)
17.10.2018 00:34 23,0 C 10,3 C 8,3 C 51 % 72 % 1017,8 hPa 0,0 l/m 4,8 km/h (1 Bft) N 360 5,5 C 10,3 C 5,8 km/h (2 Bft)
17.10.2018 00:32 23,0 C 10,3 C 8,3 C 51 % 72 % 1017,8 hPa 0,0 l/m 4,8 km/h (1 Bft) N 360 5,5 C 10,3 C 5,8 km/h (2 Bft)
17.10.2018 00:30 23,0 C 10,4 C 8,4 C 51 % 72 % 1017,8 hPa 0,0 l/m 5,0 km/h (1 Bft) N-NO 22 5,6 C 10,4 C 5,8 km/h (2 Bft)
17.10.2018 00:28 23,0 C 10,5 C 8,4 C 51 % 72 % 1017,8 hPa 0,0 l/m 5,1 km/h (1 Bft) N-NW 337 5,7 C 10,5 C 6,2 km/h (2 Bft)
17.10.2018 00:26 23,1 C 10,6 C 8,3 C 51 % 72 % 1017,6 hPa 0,0 l/m 5,1 km/h (1 Bft) N-NO 22 5,8 C 10,6 C 6,4 km/h (2 Bft)
17.10.2018 00:24 23,1 C 10,7 C 8,3 C 51 % 72 % 1017,6 hPa 0,0 l/m 5,5 km/h (1 Bft) N 360 5,9 C 10,7 C 7,0 km/h (2 Bft)
17.10.2018 00:22 23,1 C 10,7 C 8,3 C 51 % 72 % 1017,6 hPa 0,0 l/m 5,5 km/h (1 Bft) N-NW 337 5,9 C 10,7 C 7,0 km/h (2 Bft)
17.10.2018 00:20 23,1 C 10,7 C 8,3 C 51 % 72 % 1017,6 hPa 0,0 l/m 5,5 km/h (1 Bft) N 360 5,9 C 10,7 C 6,6 km/h (2 Bft)
17.10.2018 00:18 23,1 C 10,7 C 8,4 C 51 % 72 % 1017,6 hPa 0,0 l/m 5,8 km/h (2 Bft) N-NO 22 5,9 C 10,7 C 6,6 km/h (2 Bft)
17.10.2018 00:16 23,1 C 10,7 C 8,4 C 51 % 72 % 1017,6 hPa 0,0 l/m 5,8 km/h (2 Bft) N-NO 22 5,9 C 10,7 C 9,5 km/h (2 Bft)
17.10.2018 00:14 23,1 C 10,8 C 8,4 C 51 % 72 % 1017,6 hPa 0,0 l/m 5,8 km/h (2 Bft) N-NO 22 6,0 C 10,8 C 9,5 km/h (2 Bft)
17.10.2018 00:12 23,2 C 10,7 C 8,5 C 51 % 72 % 1017,6 hPa 0,0 l/m 5,6 km/h (1 Bft) N-NO 22 5,9 C 10,7 C 7,1 km/h (2 Bft)
17.10.2018 00:10 23,1 C 10,7 C 8,5 C 51 % 72 % 1017,6 hPa 0,0 l/m 5,8 km/h (2 Bft) N 360 5,9 C 10,7 C 6,6 km/h (2 Bft)
17.10.2018 00:08 23,1 C 10,7 C 8,5 C 51 % 72 % 1017,6 hPa 0,0 l/m 5,8 km/h (2 Bft) N 360 5,9 C 10,7 C 6,6 km/h (2 Bft)
17.10.2018 00:06 23,2 C 10,7 C 8,5 C 51 % 72 % 1017,9 hPa 0,0 l/m 5,8 km/h (2 Bft) N 360 5,9 C 10,7 C 6,6 km/h (2 Bft)
17.10.2018 00:04 23,2 C 10,7 C 8,5 C 51 % 72 % 1017,9 hPa 0,0 l/m 5,8 km/h (2 Bft) N 360 5,9 C 10,7 C 6,6 km/h (2 Bft)
17.10.2018 00:02 23,2 C 10,7 C 8,5 C 51 % 72 % 1017,9 hPa 0,0 l/m 5,8 km/h (2 Bft) N 360 5,9 C 10,7 C 7,0 km/h (2 Bft)
17.10.2018 00:00 23,2 C 10,7 C 8,5 C 51 % 72 % 1017,9 hPa 0,0 l/m 5,6 km/h (1 Bft) N 360 5,9 C 10,7 C 8,5 km/h (2 Bft)
_ Min-Zeit 04:56 06:14 02:02 13:26 16:26 05:08 - 16:38 - - 02:00 06:14 01:56
Minimum _ 22,5 C 8,1 C 5,4 C 46 % 54 % 1016,9 hPa - 0,0 km/h (0 Bft) - - 4,8 C 7,3 C 0,0 km/h (0 Bft)
_ Max-Zeit 13:02 15:06 13:18 00:00 07:06 11:28 00:00 12:14 - - 15:06 15:06 12:02
Maximum _ 26,4 C 18,6 C 22,1 C 51 % 83 % 1020,1 hPa 0,0 l/m 9,3 km/h
NO (2 Bft)
- - 11,2 C 18,6 C 21,2 km/h
NO (4 Bft)
Durchschnitt _ 24,1 C 12,5 C 12,6 C 49 % 73 % 1018,2 hPa #0,0 l/m 3,9 km/h (1 Bft) N-NO - 7,7 C 12,4 C 6,4 km/h (2 Bft)